IK6IHU-3 Weather Reports


time (UTC)temp
C
wind
direction
speed
KPH
gust
KPH
rain 1hr
cm
rain 24hr
cm
rain mn
cm
humidity
%
barometer
mb
20260507142928 17 146 8.0 12.9 0.00 0.00 0.00 64 1013.1
20260507142828 17 148 8.0 12.9 0.00 0.00 0.00 64 1013.1
20260507142728 17 151 4.8 14.5 0.00 0.00 0.00 64 1013.1
20260507142628 17 156 9.7 14.5 0.00 0.00 0.00 63 1013.2
20260507142528 17 157 4.8 14.5 0.00 0.00 0.00 64 1013.2
20260507142428 17 158 6.4 14.5 0.00 0.00 0.00 63 1013.1
20260507142328 17 162 8.0 14.5 0.00 0.00 0.00 63 1013.1
20260507142227 17 168 9.7 14.5 0.00 0.00 0.00 63 1013.2
20260507142128 17 169 8.0 14.5 0.00 0.00 0.00 63 1013.1
20260507142028 17 174 6.4 14.5 0.00 0.00 0.00 62 1013.2
20260507141928 17 180 9.7 14.5 0.00 0.00 0.00 62 1013.2
20260507141828 17 182 8.0 14.5 0.00 0.00 0.00 63 1013.2
20260507141728 17 185 9.7 12.9 0.00 0.00 0.00 63 1013.2
20260507141627 17 184 8.0 11.3 0.00 0.00 0.00 63 1013.3
20260507141528 17 181 6.4 11.3 0.00 0.00 0.00 63 1013.4
20260507141428 17 181 6.4 11.3 0.00 0.00 0.00 63 1013.3
20260507141327 17 179 6.4 11.3 0.00 0.00 0.00 63 1013.1
20260507141228 17 172 6.4 11.3 0.00 0.00 0.00 62 1013.3
20260507141128 17 170 6.4 11.3 0.00 0.00 0.00 62 1013.3
20260507141028 17 164 6.4 11.3 0.00 0.00 0.00 62 1013.2
20260507140928 17 159 3.2 11.3 0.00 0.00 0.00 62 1013.4
20260507140828 17 157 4.8 11.3 0.00 0.00 0.00 62 1013.3
20260507140727 17 152 6.4 11.3 0.00 0.00 0.00 62 1013.3
20260507140627 17 150 8.0 11.3 0.00 0.00 0.00 62 1013.3
20260507140528 17 149 6.4 12.9 0.00 0.00 0.00 62 1013.3
20260507140428 17 149 6.4 12.9 0.00 0.00 0.00 62 1013.4
20260507140328 17 149 6.4 12.9 0.00 0.00 0.00 62 1013.3
20260507140227 17 151 4.8 12.9 0.00 0.00 0.00 63 1013.2
20260507140128 17 153 6.4 12.9 0.00 0.00 0.00 62 1013.3
20260507140028 17 155 3.2 12.9 0.00 0.00 0.00 62 1013.2
20260507135927 17 152 3.2 12.9 0.00 0.00 0.00 62 1013.3
20260507135827 17 152 4.8 12.9 0.00 0.00 0.00 62 1013.2
20260507135728 17 151 8.0 12.9 0.00 0.00 0.00 62 1013.3
20260507135627 17 151 8.0 12.9 0.00 0.00 0.00 62 1013.1
20260507135528 17 149 11.3 12.9 0.00 0.00 0.00 61 1013.4
20260507135428 17 148 6.4 11.3 0.00 0.00 0.00 62 1013.3
20260507135327 17 142 3.2 11.3 0.00 0.00 0.00 63 1013.3
20260507135228 17 138 4.8 11.3 0.00 0.00 0.00 62 1013.2
20260507135128 17 131 4.8 11.3 0.00 0.00 0.00 62 1013.1
20260507135027 17 125 4.8 11.3 0.00 0.00 0.00 62 1013.4
20260507134927 17 120 3.2 11.3 0.00 0.00 0.00 62 1013.4
20260507134828 17 117 4.8 11.3 0.00 0.00 0.00 61 1013.1
20260507134728 17 116 6.4 11.3 0.00 0.00 0.00 61 1013.2
20260507134627 17 116 4.8 14.5 0.00 0.00 0.00 61 1013.2
20260507134528 17 116 4.8 14.5 0.00 0.00 0.00 61 1013.2
20260507134428 17 115 6.4 14.5 0.00 0.00 0.00 61 1013.4
20260507134328 17 117 6.4 14.5 0.00 0.00 0.00 60 1013.1
20260507134228 17 119 6.4 14.5 0.00 0.00 0.00 61 1013.3
20260507134128 17 124 6.4 14.5 0.00 0.00 0.00 61 1013.2
20260507134028 17 128 3.2 14.5 0.00 0.00 0.00 61 1013.2
20260507133928 18 133 3.2 14.5 0.00 0.00 0.00 62 1013.2
20260507133828 17 137 6.4 14.5 0.00 0.00 0.00 61 1013.2
20260507133727 17 143 8.0 14.5 0.00 0.00 0.00 62 1013.2
20260507133628 17 143 9.7 17.7 0.00 0.00 0.00 62 1013.4
20260507133528 18 150 6.4 17.7 0.00 0.00 0.00 63 1013.3
20260507133427 18 155 4.8 17.7 0.00 0.00 0.00 63 1013.3
20260507133328 17 154 8.0 17.7 0.00 0.00 0.00 62 1013.2
20260507133227 18 154 6.4 17.7 0.00 0.00 0.00 62 1013.1
20260507133127 18 153 6.4 17.7 0.00 0.00 0.00 62 1013.4
20260507133028 17 154 6.4 17.7 0.00 0.00 0.00 62 1013.4
20260507132928 17 153 9.7 17.7 0.00 0.00 0.00 62 1013.2
20260507132828 18 153 8.0 17.7 0.00 0.00 0.00 62 1013.3
20260507132728 17 153 9.7 17.7 0.00 0.00 0.00 61 1013.4
20260507132628 17 156 9.7 17.7 0.00 0.00 0.00 62 1013.1
20260507132527 18 155 9.7 17.7 0.00 0.00 0.00 62 1013.2
20260507132428 18 155 9.7 17.7 0.00 0.00 0.00 62 1013.3
20260507132327 17 159 12.9 17.7 0.00 0.00 0.00 61 1013.3
20260507132228 18 162 11.3 14.5 0.00 0.00 0.00 61 1013.3
20260507132128 18 159 9.7 14.5 0.00 0.00 0.00 62 1013.1
20260507132027 18 156 9.7 14.5 0.00 0.00 0.00 62 1013.4
20260507131928 18 158 6.4 12.9 0.00 0.00 0.00 61 1013.2
20260507131828 18 155 8.0 12.9 0.00 0.00 0.00 62 1013.3
20260507131727 18 154 6.4 12.9 0.00 0.00 0.00 62 1013.4
20260507131629 18 149 6.4 12.9 0.00 0.00 0.00 62 1013.4
20260507131527 18 144 6.4 12.9 0.00 0.00 0.00 62 1013.3
20260507131428 18 134 4.8 12.9 0.00 0.00 0.00 63 1013.4
20260507131327 18 128 4.8 12.9 0.00 0.00 0.00 62 1013.3
20260507131227 18 126 6.4 12.9 0.00 0.00 0.00 62 1013.5
20260507131128 18 127 8.0 12.9 0.00 0.00 0.00 61 1013.4
20260507131027 18 128 4.8 12.9 0.00 0.00 0.00 63 1013.4
20260507130927 18 125 4.8 12.9 0.00 0.00 0.00 62 1013.3
20260507130828 18 123 6.4 12.9 0.00 0.00 0.00 62 1013.4
20260507130727 18 120 4.8 12.9 0.00 0.00 0.00 62 1013.5
20260507130628 18 119 6.4 12.9 0.00 0.00 0.00 62 1013.5
20260507130528 18 116 6.4 12.9 0.00 0.00 0.00 62 1013.6
20260507130428 18 116 8.0 12.9 0.00 0.00 0.00 62 1013.5
20260507130328 18 119 8.0 14.5 0.00 0.00 0.00 62 1013.6
20260507130228 18 118 8.0 14.5 0.00 0.00 0.00 62 1013.7
20260507130128 18 116 11.3 14.5 0.00 0.00 0.00 61 1013.5
20260507130028 18 116 6.4 14.5 0.00 0.00 0.00 62 1013.3
20260507125928 18 112 6.4 14.5 0.00 0.00 0.00 62 1013.3
20260507125827 18 113 4.8 14.5 0.00 0.00 0.00 62 1013.3
20260507125727 18 113 6.4 14.5 0.00 0.00 0.00 61 1013.4
20260507125628 18 114 9.7 14.5 0.00 0.00 0.00 61 1013.5
20260507125528 18 117 8.0 14.5 0.00 0.00 0.00 62 1013.3
20260507125427 18 119 6.4 14.5 0.00 0.00 0.00 63 1013.5
20260507125327 18 117 6.4 14.5 0.00 0.00 0.00 62 1013.7
20260507125228 18 116 9.7 14.5 0.00 0.00 0.00 62 1013.6
20260507125129 18 113 9.7 14.5 0.00 0.00 0.00 62 1013.4
20260507125027 18 113 8.0 12.9 0.00 0.00 0.00 62 1013.4
20260507124927 18 117 6.4 12.9 0.00 0.00 0.00 63 1013.5
20260507124828 18 118 4.8 12.9 0.00 0.00 0.00 63 1013.5
20260507124727 18 116 4.8 12.9 0.00 0.00 0.00 64 1013.5
20260507124627 18 115 8.0 12.9 0.00 0.00 0.00 63 1013.5
20260507124528 18 108 6.4 12.9 0.00 0.00 0.00 64 1013.5
20260507124428 18 104 8.0 12.9 0.00 0.00 0.00 63 1013.6
20260507124327 18 98 6.4 14.5 0.00 0.00 0.00 63 1013.7
20260507124227 18 95 8.0 14.5 0.00 0.00 0.00 63 1013.5
20260507124127 18 93 8.0 14.5 0.00 0.00 0.00 63 1013.5
20260507124027 18 86 6.4 14.5 0.00 0.00 0.00 63 1013.4
20260507123928 18 81 6.4 14.5 0.00 0.00 0.00 64 1013.7
20260507123827 18 78 6.4 14.5 0.00 0.00 0.00 64 1013.6
20260507123728 18 76 6.4 14.5 0.00 0.00 0.00 64 1013.4
20260507123628 17 72 9.7 14.5 0.00 0.00 0.00 64 1013.5
20260507123527 17 71 9.7 14.5 0.00 0.00 0.00 64 1013.3
20260507123428 17 72 8.0 14.5 0.00 0.00 0.00 65 1013.5
20260507123327 17 75 8.0 14.5 0.00 0.00 0.00 65 1013.4
20260507123228 17 73 9.7 14.5 0.00 0.00 0.00 65 1013.5
20260507123127 18 74 8.0 14.5 0.00 0.00 0.00 64 1013.4
20260507123028 18 77 6.4 14.5 0.00 0.00 0.00 64 1013.3
20260507122927 17 80 9.7 14.5 0.00 0.00 0.00 64 1013.5
20260507122827 18 78 6.4 11.3 0.00 0.00 0.00 64 1013.5
20260507122728 18 79 6.4 11.3 0.00 0.00 0.00 65 1013.4
20260507122627 18 80 6.4 11.3 0.00 0.00 0.00 65 1013.5
20260507122528 18 78 3.2 11.3 0.00 0.00 0.00 65 1013.3
20260507122428 18 74 4.8 12.9 0.00 0.00 0.00 65 1013.7
20260507122328 18 72 3.2 12.9 0.00 0.00 0.00 64 1013.7
20260507122228 18 71 4.8 12.9 0.00 0.00 0.00 64 1013.6
20260507122127 17 66 8.0 12.9 0.00 0.00 0.00 63 1013.6
20260507122027 18 63 6.4 12.9 0.00 0.00 0.00 63 1013.5
20260507121928 18 63 4.8 12.9 0.00 0.00 0.00 63 1013.5
20260507121827 18 64 3.2 12.9 0.00 0.00 0.00 63 1013.5
20260507121727 18 64 4.8 12.9 0.00 0.00 0.00 62 1013.5
20260507121627 18 65 6.4 12.9 0.00 0.00 0.00 62 1013.5
20260507121527 18 66 6.4 12.9 0.00 0.00 0.00 63 1013.6
20260507121428 18 63 6.4 12.9 0.00 0.00 0.00 63 1013.5
20260507121327 18 63 8.0 14.5 0.00 0.00 0.00 63 1013.5
20260507121227 18 64 3.2 14.5 0.00 0.00 0.00 63 1013.7
20260507121128 18 66 3.2 17.7 0.00 0.00 0.00 64 1013.5
20260507121028 18 67 9.7 17.7 0.00 0.00 0.00 63 1013.5
20260507120927 18 65 8.0 17.7 0.00 0.00 0.00 63 1013.2
20260507120827 18 60 9.7 22.5 0.00 0.00 0.00 63 1013.5
20260507120728 18 60 11.3 22.5 0.00 0.00 0.00 63 1013.2
20260507120627 18 60 8.0 22.5 0.00 0.00 0.00 63 1013.4
20260507120527 18 62 9.7 22.5 0.00 0.00 0.00 63 1013.5
20260507120428 18 66 11.3 22.5 0.00 0.00 0.00 63 1013.5
20260507120328 18 65 8.0 22.5 0.00 0.00 0.00 63 1013.4
20260507120227 18 65 8.0 22.5 0.00 0.00 0.00 64 1013.4
20260507120127 18 66 9.7 22.5 0.00 0.00 0.00 63 1013.3
20260507120028 18 66 12.9 22.5 0.00 0.00 0.00 63 1013.4
20260507115927 18 68 11.3 22.5 0.00 0.00 0.00 63 1013.4
20260507115827 18 74 12.9 17.7 0.00 0.00 0.00 62 1013.3
20260507115727 18 74 9.7 17.7 0.00 0.00 0.00 63 1013.5
20260507115628 18 75 8.0 17.7 0.00 0.00 0.00 63 1013.0
20260507115528 18 72 6.4 17.7 0.00 0.00 0.00 63 1013.4
20260507115427 18 69 6.4 17.7 0.00 0.00 0.00 64 1013.2
20260507115328 18 69 9.7 17.7 0.00 0.00 0.00 64 1013.4
20260507115227 18 70 6.4 17.7 0.00 0.00 0.00 64 1013.5
20260507115128 18 69 8.0 17.7 0.00 0.00 0.00 65 1013.5
20260507115027 18 72 11.3 17.7 0.00 0.00 0.00 64 1013.4
20260507114928 18 74 12.9 17.7 0.00 0.00 0.00 63 1013.6
20260507114828 18 73 11.3 17.7 0.00 0.00 0.00 64 1013.3
20260507114727 18 74 6.4 17.7 0.00 0.00 0.00 65 1013.3
20260507114628 18 73 6.4 17.7 0.00 0.00 0.00 65 1013.4
20260507114527 18 74 6.4 17.7 0.00 0.00 0.00 65 1013.4
20260507114427 18 74 9.7 20.9 0.00 0.00 0.00 64 1013.4
20260507114328 18 76 9.7 20.9 0.00 0.00 0.00 65 1013.4
20260507114228 18 77 12.9 20.9 0.00 0.00 0.00 64 1013.2
20260507114127 18 76 8.0 20.9 0.00 0.00 0.00 64 1013.2
20260507114027 18 76 11.3 20.9 0.00 0.00 0.00 63 1013.1
20260507113928 18 74 9.7 20.9 0.00 0.00 0.00 64 1013.1
20260507113828 18 76 9.7 20.9 0.00 0.00 0.00 64 1013.1
20260507113727 18 77 12.9 20.9 0.00 0.00 0.00 64 1013.4
20260507113628 18 77 11.3 20.9 0.00 0.00 0.00 64 1013.2
20260507113527 18 79 12.9 20.9 0.00 0.00 0.00 64 1013.2
20260507113427 18 80 14.5 20.9 0.00 0.00 0.00 64 1013.3
20260507113327 18 82 11.3 17.7 0.00 0.00 0.00 65 1013.3
20260507113228 18 84 11.3 17.7 0.00 0.00 0.00 64 1013.2
20260507113127 18 88 12.9 17.7 0.00 0.00 0.00 64 1013.3
20260507113027 18 87 12.9 17.7 0.00 0.00 0.00 64 1013.3
20260507112928 18 89 12.9 14.5 0.00 0.00 0.00 64 1013.3
20260507112828 18 89 11.3 14.5 0.00 0.00 0.00 64 1013.2
20260507112728 18 89 8.0 14.5 0.00 0.00 0.00 66 1013.4
20260507112627 18 91 9.7 14.5 0.00 0.00 0.00 65 1013.4
20260507112527 18 90 8.0 14.5 0.00 0.00 0.00 65 1013.3
20260507112427 18 91 9.7 14.5 0.00 0.00 0.00 66 1013.3
20260507112328 18 94 11.3 17.7 0.00 0.00 0.00 66 1013.3
20260507112227 18 94 6.4 17.7 0.00 0.00 0.00 65 1013.3
20260507112127 18 94 8.0 17.7 0.00 0.00 0.00 65 1013.3
20260507112027 18 94 8.0 17.7 0.00 0.00 0.00 66 1013.3
20260507111927 18 96 9.7 17.7 0.00 0.00 0.00 65 1013.4
20260507111828 18 96 8.0 17.7 0.00 0.00 0.00 65 1013.2
20260507111727 18 97 8.0 17.7 0.00 0.00 0.00 65 1013.4
20260507111627 18 96 6.4 17.7 0.00 0.00 0.00 65 1013.5
20260507111528 18 97 11.3 17.7 0.00 0.00 0.00 64 1013.4
20260507111427 18 98 6.4 17.7 0.00 0.00 0.00 66 1013.4
20260507111328 18 93 12.9 17.7 0.00 0.00 0.00 65 1013.3
20260507111227 18 93 9.7 17.7 0.00 0.00 0.00 65 1013.4
20260507111127 18 93 8.0 17.7 0.00 0.00 0.00 65 1013.3
20260507111027 18 95 8.0 17.7 0.00 0.00 0.00 65 1013.4
20260507110927 18 92 6.4 17.7 0.00 0.00 0.00 66 1013.4
20260507110828 18 91 6.4 17.7 0.00 0.00 0.00 65 1013.3
20260507110727 19 90 4.8 17.7 0.00 0.00 0.00 66 1013.2
20260507110627 18 88 8.0 17.7 0.00 0.00 0.00 66 1013.4
20260507110527 18 85 12.9 17.7 0.00 0.00 0.00 65 1013.3
20260507110427 18 82 12.9 17.7 0.00 0.00 0.00 65 1013.4
20260507110327 18 81 8.0 17.7 0.00 0.00 0.00 66 1013.4
20260507110227 18 78 8.0 17.7 0.00 0.00 0.00 65 1013.4
20260507110127 18 72 8.0 17.7 0.00 0.00 0.00 66 1013.3
20260507110027 18 67 12.9 17.7 0.00 0.00 0.00 66 1013.5
20260507105928 18 65 9.7 17.7 0.00 0.00 0.00 66 1013.3
20260507105827 18 64 6.4 17.7 0.00 0.00 0.00 66 1013.3
20260507105728 18 63 8.0 17.7 0.00 0.00 0.00 66 1013.3
20260507105627 18 63 11.3 17.7 0.00 0.00 0.00 65 1013.6
20260507105527 18 64 12.9 17.7 0.00 0.00 0.00 66 1013.3
20260507105427 18 64 8.0 14.5 0.00 0.00 0.00 66 1013.5
20260507105327 18 66 8.0 12.9 0.00 0.00 0.00 65 1013.4
20260507105227 18 66 8.0 12.9 0.00 0.00 0.00 66 1013.6
20260507105127 18 70 6.4 12.9 0.00 0.00 0.00 66 1013.5
20260507105028 18 77 4.8 12.9 0.00 0.00 0.00 65 1013.5
20260507104927 19 74 6.4 12.9 0.00 0.00 0.00 66 1013.4
20260507104827 18 75 4.8 12.9 0.00 0.00 0.00 65 1013.4
20260507104727 18 76 6.4 12.9 0.00 0.00 0.00 65 1013.4
20260507104628 18 78 6.4 12.9 0.00 0.00 0.00 65 1013.5
20260507104527 18 78 9.7 12.9 0.00 0.00 0.00 65 1013.4
20260507104427 18 79 8.0 12.9 0.00 0.00 0.00 65 1013.5
20260507104327 19 79 6.4 12.9 0.00 0.00 0.00 66 1013.7
20260507104227 18 81 6.4 12.9 0.00 0.00 0.00 65 1013.6
20260507104127 18 83 4.8 12.9 0.00 0.00 0.00 65 1013.4
20260507104028 18 84 6.4 12.9 0.00 0.00 0.00 65 1013.5
20260507103927 18 91 6.4 12.9 0.00 0.00 0.00 66 1013.5
20260507103827 18 95 6.4 12.9 0.00 0.00 0.00 66 1013.5
20260507103728 18 96 6.4 12.9 0.00 0.00 0.00 66 1013.8
20260507103627 18 99 4.8 12.9 0.00 0.00 0.00 66 1013.6
20260507103527 18 103 9.7 12.9 0.00 0.00 0.00 66 1013.7
20260507103427 18 107 6.4 11.3 0.00 0.00 0.00 67 1013.5
20260507103328 18 109 6.4 11.3 0.00 0.00 0.00 66 1013.7
20260507103227 18 114 6.4 11.3 0.00 0.00 0.00 66 1013.6
20260507103127 18 111 6.4 9.7 0.00 0.00 0.00 65 1013.8
20260507103027 18 113 6.4 9.7 0.00 0.00 0.00 65 1013.8
20260507102927 18 104 6.4 9.7 0.00 0.00 0.00 64 1013.9
20260507102827 18 107 3.2 6.4 0.00 0.00 0.00 64 1013.8
20260507102728 18 114 3.2 6.4 0.00 0.00 0.00 63 1013.7
20260507102627 18 118 3.2 6.4 0.00 0.00 0.00 63 1013.8
20260507102527 18 118 1.6 6.4 0.00 0.00 0.00 64 1013.6
20260507102428 18 120 3.2 6.4 0.00 0.00 0.00 64 1013.6
20260507102327 18 122 1.6 6.4 0.00 0.00 0.00 64 1013.7
20260507102227 18 123 3.2 6.4 0.00 0.00 0.00 63 1013.5
20260507102128 18 124 3.2 6.4 0.00 0.00 0.00 64 1013.8
20260507102027 18 127 3.2 6.4 0.00 0.00 0.00 64 1013.6
20260507101927 18 131 3.2 9.7 0.00 0.00 0.00 64 1013.6
20260507101827 18 134 4.8 9.7 0.00 0.00 0.00 64 1013.6
20260507101727 18 132 4.8 9.7 0.00 0.00 0.00 64 1013.5
20260507101627 18 130 3.2 9.7 0.00 0.00 0.00 64 1013.6
20260507101527 18 129 3.2 9.7 0.00 0.00 0.00 64 1013.3
20260507101427 18 127 1.6 9.7 0.00 0.00 0.00 65 1013.6
20260507101327 18 123 3.2 9.7 0.00 0.00 0.00 65 1013.5
20260507101227 18 118 3.2 9.7 0.00 0.00 0.00 65 1013.3
20260507101127 18 112 4.8 9.7 0.00 0.00 0.00 64 1013.4
20260507101027 18 106 6.4 9.7 0.00 0.00 0.00 64 1013.3
20260507100927 18 98 3.2 6.4 0.00 0.00 0.00 65 1013.5
20260507100827 18 92 3.2 6.4 0.00 0.00 0.00 64 1013.4
20260507100727 18 79 3.2 6.4 0.00 0.00 0.00 65 1013.5
20260507100627 18 77 1.6 6.4 0.00 0.00 0.00 65 1013.3
20260507100527 18 75 1.6 6.4 0.00 0.00 0.00 65 1013.5
20260507100427 18 69 3.2 6.4 0.00 0.00 0.00 65 1013.3
20260507100328 18 66 3.2 9.7 0.00 0.00 0.00 65 1013.3
20260507100227 18 63 3.2 12.9 0.00 0.00 0.00 65 1013.4
20260507100127 18 64 3.2 17.7 0.00 0.00 0.00 65 1013.3
20260507100027 18 64 3.2 17.7 0.00 0.00 0.00 64 1013.4
20260507095927 18 63 1.6 17.7 0.00 0.00 0.00 65 1013.3
20260507095827 18 62 3.2 17.7 0.00 0.00 0.00 64 1013.3
20260507095728 18 64 3.2 17.7 0.00 0.00 0.00 65 1013.4
20260507095627 18 65 3.2 17.7 0.00 0.00 0.00 65 1013.2
20260507095527 18 65 3.2 17.7 0.00 0.00 0.00 65 1013.6
20260507095427 18 65 6.4 17.7 0.00 0.00 0.00 65 1013.3
20260507095327 18 67 6.4 17.7 0.00 0.00 0.00 65 1013.4
20260507095227 18 69 9.7 17.7 0.00 0.00 0.00 65 1013.2
20260507095127 18 71 11.3 17.7 0.00 0.00 0.00 65 1013.3
20260507095028 18 76 6.4 12.9 0.00 0.00 0.00 65 1013.4
20260507094927 18 83 8.0 12.9 0.00 0.00 0.00 66 1013.4
20260507094828 18 87 6.4 12.9 0.00 0.00 0.00 66 1013.3
20260507094727 18 90 6.4 12.9 0.00 0.00 0.00 66 1013.5
20260507094627 18 94 4.8 12.9 0.00 0.00 0.00 65 1013.3
20260507094527 18 93 6.4 14.5 0.00 0.00 0.00 64 1013.4
20260507094427 18 93 4.8 14.5 0.00 0.00 0.00 65 1013.5
20260507094327 18 94 3.2 17.7 0.00 0.00 0.00 65 1013.4
20260507094227 18 91 3.2 17.7 0.00 0.00 0.00 65 1013.5
20260507094127 18 87 3.2 17.7 0.00 0.00 0.00 65 1013.4
20260507094028 18 84 8.0 17.7 0.00 0.00 0.00 64 1013.6
20260507093927 18 80 6.4 17.7 0.00 0.00 0.00 65 1013.4
20260507093827 18 77 9.7 17.7 0.00 0.00 0.00 65 1013.4
20260507093727 18 73 9.7 17.7 0.00 0.00 0.00 66 1013.5
20260507093627 18 69 8.0 17.7 0.00 0.00 0.00 67 1013.6
20260507093527 17 68 12.9 17.7 0.00 0.00 0.00 67 1013.5
20260507093427 18 66 12.9 17.7 0.00 0.00 0.00 68 1013.6
20260507093327 18 65 12.9 17.7 0.00 0.00 0.00 68 1013.4
20260507093227 18 65 11.3 17.7 0.00 0.00 0.00 68 1013.5
20260507093127 18 65 11.3 17.7 0.00 0.00 0.00 68 1013.4
20260507093027 18 63 6.4 17.7 0.00 0.00 0.00 69 1013.4
20260507092927 18 62 11.3 17.7 0.00 0.00 0.00 68 1013.3
20260507092827 17 60 12.9 17.7 0.00 0.00 0.00 67 1013.2
20260507092727 18 59 14.5 17.7 0.00 0.00 0.00 67 1013.4
20260507092627 18 53 11.3 17.7 0.00 0.00 0.00 67 1013.2
20260507092527 18 52 12.9 17.7 0.00 0.00 0.00 66 1013.4
20260507092428 18 52 9.7 17.7 0.00 0.00 0.00 67 1013.3
20260507092327 18 53 8.0 17.7 0.00 0.00 0.00 68 1013.3
20260507092227 18 52 9.7 17.7 0.00 0.00 0.00 68 1013.4
20260507092127 18 48 9.7 17.7 0.00 0.00 0.00 67 1013.3
20260507092027 18 43 9.7 17.7 0.00 0.00 0.00 68 1013.5
20260507091927 18 44 11.3 17.7 0.00 0.00 0.00 68 1013.4
20260507091827 18 44 3.2 17.7 0.00 0.00 0.00 68 1013.5
20260507091727 18 44 9.7 17.7 0.00 0.00 0.00 68 1013.6
20260507091627 18 48 9.7 17.7 0.00 0.00 0.00 69 1013.4
20260507091527 17 45 11.3 17.7 0.00 0.00 0.00 68 1013.4
20260507091427 18 38 12.9 17.7 0.00 0.00 0.00 69 1013.5
20260507091327 18 34 12.9 17.7 0.00 0.00 0.00 68 1013.5
20260507091227 18 32 9.7 17.7 0.00 0.00 0.00 69 1013.4
20260507091127 18 31 8.0 22.5 0.00 0.00 0.00 68 1013.3
20260507091027 18 37 12.9 22.5 0.00 0.00 0.00 68 1013.3
20260507090927 18 38 12.9 22.5 0.00 0.00 0.00 68 1013.1
20260507090827 18 41 11.3 22.5 0.00 0.00 0.00 68 1013.3
20260507090727 18 42 9.7 22.5 0.00 0.00 0.00 69 1013.3
20260507090627 18 43 6.4 22.5 0.00 0.00 0.00 68 1013.5
20260507090527 18 48 8.0 22.5 0.00 0.00 0.00 68 1013.5
20260507090427 18 54 12.9 22.5 0.00 0.00 0.00 68 1013.1
20260507090327 18 57 11.3 22.5 0.00 0.00 0.00 68 1013.2
20260507090227 18 59 12.9 22.5 0.00 0.00 0.00 68 1013.4
20260507090127 18 66 12.9 17.7 0.00 0.00 0.00 68 1013.2
20260507090027 18 64 6.4 17.7 0.00 0.00 0.00 68 1013.1
20260507085927 18 66 9.7 17.7 0.00 0.00 0.00 68 1013.2
20260507085827 17 65 11.3 17.7 0.00 0.00 0.00 68 1013.3
20260507085727 18 67 8.0 17.7 0.00 0.00 0.00 70 1013.3
20260507085627 17 66 11.3 17.7 0.00 0.00 0.00 69 1013.2
20260507085527 17 65 12.9 17.7 0.00 0.00 0.00 69 1013.2
20260507085427 17 65 9.7 17.7 0.00 0.00 0.00 70 1013.3
20260507085327 17 63 11.3 17.7 0.00 0.00 0.00 70 1013.4
20260507085227 17 61 12.9 17.7 0.00 0.00 0.00 69 1013.4
20260507085127 17 58 14.5 17.7 0.00 0.00 0.00 69 1013.3
20260507085027 17 59 12.9 17.7 0.00 0.00 0.00 69 1013.3
20260507084927 17 54 6.4 14.5 0.00 0.00 0.00 70 1013.3
20260507084827 17 53 9.7 14.5 0.00 0.00 0.00 69 1013.1
20260507084727 17 49 11.3 14.5 0.00 0.00 0.00 69 1013.0
20260507084627 17 51 8.0 14.5 0.00 0.00 0.00 69 1013.3
20260507084527 17 52 6.4 14.5 0.00 0.00 0.00 69 1013.4
20260507084427 17 51 6.4 14.5 0.00 0.00 0.00 68 1013.2
20260507084327 17 52 8.0 14.5 0.00 0.00 0.00 68 1013.3
20260507084227 17 55 6.4 14.5 0.00 0.00 0.00 68 1013.2
20260507084127 17 58 6.4 17.7 0.00 0.00 0.00 68 1013.4
20260507084027 17 59 6.4 17.7 0.00 0.00 0.00 68 1013.3
20260507083927 17 61 6.4 17.7 0.00 0.00 0.00 69 1013.5
20260507083827 17 62 6.4 17.7 0.00 0.00 0.00 69 1013.3
20260507083727 17 62 6.4 17.7 0.00 0.00 0.00 68 1013.4
20260507083627 17 62 8.0 17.7 0.00 0.00 0.00 68 1013.3
20260507083527 17 62 6.4 17.7 0.00 0.00 0.00 69 1013.3
20260507083427 17 63 8.0 17.7 0.00 0.00 0.00 68 1013.5
20260507083327 17 65 6.4 17.7 0.00 0.00 0.00 68 1013.4
20260507083227 17 65 8.0 17.7 0.00 0.00 0.00 68 1013.4
20260507083127 18 65 8.0 14.5 0.00 0.00 0.00 67 1013.5
20260507083027 18 67 6.4 12.9 0.00 0.00 0.00 68 1013.4
20260507082928 18 68 6.4 12.9 0.00 0.00 0.00 67 1013.4
20260507082827 18 72 6.4 12.9 0.00 0.00 0.00 66 1013.4
20260507082727 18 72 6.4 12.9 0.00 0.00 0.00 66 1013.6
20260507082627 18 71 6.4 12.9 0.00 0.00 0.00 65 1013.4
20260507082527 18 72 4.8 12.9 0.00 0.00 0.00 66 1013.5
20260507082427 18 71 4.8 12.9 0.00 0.00 0.00 66 1013.4
20260507082327 18 57 6.4 12.9 0.00 0.00 0.00 65 1013.5
20260507082227 18 338 6.4 12.9 0.00 0.00 0.00 64 1013.4
20260507082127 18 272 6.4 12.9 0.00 0.00 0.00 64 1013.5
20260507082027 18 267 6.4 11.3 0.00 0.00 0.00 64 1013.5
20260507081927 18 275 3.2 6.4 0.00 0.00 0.00 63 1013.3
20260507081827 18 284 1.6 6.4 0.00 0.00 0.00 63 1013.6
20260507081727 18 282 1.6 3.2 0.00 0.00 0.00 63 1013.6
20260507081627 18 288 1.6 3.2 0.00 0.00 0.00 63 1013.5
20260507081527 18 291 1.6 3.2 0.00 0.00 0.00 62 1013.5
20260507081427 18 290 1.6 3.2 0.00 0.00 0.00 63 1013.6
20260507081327 18 293 3.2 3.2 0.00 0.00 0.00 63 1013.4
20260507081227 18 292 1.6 3.2 0.00 0.00 0.00 63 1013.5
20260507081127 18 292 1.6 3.2 0.00 0.00 0.00 64 1013.5
20260507081027 18 294 3.2 3.2 0.00 0.00 0.00 64 1013.4
20260507080927 18 298 1.6 3.2 0.00 0.00 0.00 64 1013.5
20260507080827 18 302 0.0 3.2 0.00 0.00 0.00 64 1013.5
20260507080727 18 305 1.6 3.2 0.00 0.00 0.00 64 1013.2
20260507080627 18 308 3.2 3.2 0.00 0.00 0.00 64 1013.2
20260507080527 18 309 1.6 3.2 0.00 0.00 0.00 64 1013.4
20260507080427 18 315 0.0 6.4 0.00 0.00 0.00 64 1013.3
20260507080327 18 346 1.6 9.7 0.00 0.00 0.00 64 1013.3
20260507080227 18 27 1.6 9.7 0.00 0.00 0.00 65 1012.9
20260507080127 18 66 3.2 9.7 0.00 0.00 0.00 64 1013.4
20260507080027 18 98 3.2 9.7 0.00 0.00 0.00 63 1013.2
20260507075927 18 119 3.2 9.7 0.00 0.00 0.00 63 1013.2
20260507075827 18 122 3.2 9.7 0.00 0.00 0.00 63 1013.3
20260507075727 18 115 3.2 9.7 0.00 0.00 0.00 62 1013.4
20260507075627 18 112 1.6 9.7 0.00 0.00 0.00 62 1013.2
20260507075527 18 113 3.2 9.7 0.00 0.00 0.00 62 1013.1
20260507075427 18 114 3.2 9.7 0.00 0.00 0.00 62 1013.1
20260507075327 18 111 1.6 9.7 0.00 0.00 0.00 65 1013.2
20260507075227 18 106 1.6 9.7 0.00 0.00 0.00 65 1013.3
20260507075127 18 103 4.8 9.7 0.00 0.00 0.00 65 1013.3
20260507075027 18 98 6.4 9.7 0.00 0.00 0.00 65 1013.1
20260507074927 18 93 3.2 9.7 0.00 0.00 0.00 64 1013.1
20260507074827 18 92 4.8 9.7 0.00 0.00 0.00 64 1013.0
20260507074727 18 94 6.4 9.7 0.00 0.00 0.00 63 1013.0
20260507074627 18 87 3.2 6.4 0.00 0.00 0.00 64 1013.3
20260507074527 18 82 4.8 6.4 0.00 0.00 0.00 63 1013.2
20260507074427 18 76 4.8 6.4 0.00 0.00 0.00 64 1013.2
20260507074327 18 79 4.8 6.4 0.00 0.00 0.00 64 1013.1
20260507074227 18 76 4.8 6.4 0.00 0.00 0.00 64 1013.0
20260507074127 18 73 3.2 6.4 0.00 0.00 0.00 65 1013.2
20260507074027 18 71 3.2 6.4 0.00 0.00 0.00 65 1013.0
20260507073927 18 70 3.2 6.4 0.00 0.00 0.00 66 1013.4
20260507073827 18 71 3.2 6.4 0.00 0.00 0.00 66 1013.2
20260507073727 18 76 3.2 6.4 0.00 0.00 0.00 66 1013.3
20260507073627 18 89 4.8 6.4 0.00 0.00 0.00 66 1013.3
20260507073527 18 98 3.2 6.4 0.00 0.00 0.00 65 1013.4
20260507073427 18 101 3.2 6.4 0.00 0.00 0.00 65 1013.2
20260507073327 18 102 3.2 6.4 0.00 0.00 0.00 65 1013.2
20260507073227 18 123 3.2 6.4 0.00 0.00 0.00 65 1013.2
20260507073127 18 156 3.2 6.4 0.00 0.00 0.00 64 1013.2
20260507073027 18 177 0.0 6.4 0.00 0.00 0.00 65 1013.4
20260507072927 18 207 0.0 6.4 0.00 0.00 0.00 65 1013.3
20260507072827 18 253 1.6 6.4 0.00 0.00 0.00 65 1013.3
20260507072728 18 266 3.2 6.4 0.00 0.00 0.00 65 1013.2
20260507072627 18 273 3.2 6.4 0.00 0.00 0.00 66 1013.3
20260507072527 18 277 0.0 6.4 0.00 0.00 0.00 67 1013.3
20260507072427 18 277 1.6 6.4 0.00 0.00 0.00 67 1013.3
20260507072327 18 278 1.6 6.4 0.00 0.00 0.00 68 1013.2
20260507072227 18 281 3.2 6.4 0.00 0.00 0.00 68 1013.3
20260507072127 17 282 3.2 6.4 0.00 0.00 0.00 68 1013.3
20260507072027 17 280 3.2 6.4 0.00 0.00 0.00 67 1013.3
20260507071927 17 276 4.8 6.4 0.00 0.00 0.00 67 1013.2
20260507071827 17 269 1.6 3.2 0.00 0.00 0.00 67 1013.2
20260507071727 18 263 3.2 6.4 0.00 0.00 0.00 68 1013.2
20260507071627 18 257 1.6 6.4 0.00 0.00 0.00 68 1013.2
20260507071527 18 259 1.6 6.4 0.00 0.00 0.00 68 1013.3
20260507071427 18 262 1.6 6.4 0.00 0.00 0.00 69 1013.4
20260507071327 18 264 3.2 6.4 0.00 0.00 0.00 69 1013.3
20260507071227 17 265 1.6 6.4 0.00 0.00 0.00 68 1013.4
20260507071127 18 261 1.6 6.4 0.00 0.00 0.00 68 1013.4
20260507071027 17 260 0.0 6.4 0.00 0.00 0.00 67 1013.4
20260507070927 18 254 1.6 6.4 0.00 0.00 0.00 67 1013.3
20260507070827 18 256 1.6 6.4 0.00 0.00 0.00 67 1013.1
20260507070727 18 264 3.2 6.4 0.00 0.00 0.00 67 1013.2
20260507070627 18 274 1.6 3.2 0.00 0.00 0.00 67 1013.5
20260507070527 18 272 3.2 3.2 0.00 0.00 0.00 68 1013.2
20260507070427 18 260 1.6 6.4 0.00 0.00 0.00 68 1013.3
20260507070327 18 259 1.6 6.4 0.00 0.00 0.00 68 1013.3
20260507070227 18 264 3.2 9.7 0.00 0.00 0.00 68 1013.4
20260507070127 17 275 1.6 9.7 0.00 0.00 0.00 69 1013.4
20260507070027 17 280 1.6 9.7 0.00 0.00 0.00 69 1013.1
20260507065927 17 285 1.6 9.7 0.00 0.00 0.00 70 1013.3
20260507065827 17 287 1.6 9.7 0.00 0.00 0.00 70 1013.3
20260507065727 17 286 3.2 9.7 0.00 0.00 0.00 70 1013.3
20260507065627 17 288 1.6 9.7 0.00 0.00 0.00 71 1013.2
20260507065527 17 289 3.2 9.7 0.00 0.00 0.00 71 1013.2
20260507065427 16 295 3.2 9.7 0.00 0.00 0.00 72 1013.5
20260507065327 16 296 3.2 9.7 0.00 0.00 0.00 71 1013.4
20260507065227 16 297 6.4 9.7 0.00 0.00 0.00 71 1013.5
20260507065127 16 298 4.8 6.4 0.00 0.00 0.00 71 1013.4
20260507065027 16 300 6.4 6.4 0.00 0.00 0.00 71 1013.4
20260507064927 17 302 3.2 6.4 0.00 0.00 0.00 72 1013.5
20260507064827 16 304 4.8 6.4 0.00 0.00 0.00 71 1013.4
20260507064727 16 305 3.2 6.4 0.00 0.00 0.00 71 1013.5
20260507064627 16 306 3.2 3.2 0.00 0.00 0.00 71 1013.6
20260507064527 16 310 3.2 3.2 0.00 0.00 0.00 72 1013.7
20260507064427 17 314 3.2 3.2 0.00 0.00 0.00 73 1013.7
20260507064327 17 315 0.0 3.2 0.00 0.00 0.00 73 1013.4
20260507064227 16 317 0.0 3.2 0.00 0.00 0.00 74 1013.6
20260507064127 16 319 3.2 3.2 0.00 0.00 0.00 74 1013.5
20260507064027 16 320 1.6 6.4 0.00 0.00 0.00 74 1013.5
20260507063927 16 320 1.6 6.4 0.00 0.00 0.00 74 1013.6
20260507063827 16 323 0.0 6.4 0.00 0.00 0.00 74 1013.4
20260507063727 16 324 0.0 6.4 0.00 0.00 0.00 74 1013.4
20260507063627 16 324 0.0 6.4 0.00 0.00 0.00 74 1013.6
20260507063527 16 322 3.2 6.4 0.00 0.00 0.00 74 1013.6
20260507063427 16 320 0.0 6.4 0.00 0.00 0.00 74 1013.4
20260507063327 16 320 3.2 6.4 0.00 0.00 0.00 74 1013.5
20260507063227 16 320 1.6 6.4 0.00 0.00 0.00 74 1013.2
20260507063127 16 322 3.2 6.4 0.00 0.00 0.00 74 1013.3
20260507063027 16 327 3.2 6.4 0.00 0.00 0.00 74 1013.5
20260507062927 16 332 1.6 3.2 0.00 0.00 0.00 74 1013.4
20260507062827 16 340 0.0 3.2 0.00 0.00 0.00 75 1013.6
20260507062727 16 348 0.0 3.2 0.00 0.00 0.00 75 1013.4
20260507062627 16 346 0.0 3.2 0.00 0.00 0.00 75 1013.5
20260507062527 16 346 1.6 3.2 0.00 0.00 0.00 74 1013.4
20260507062427 16 347 1.6 6.4 0.00 0.00 0.00 75 1013.4
20260507062327 16 351 1.6 6.4 0.00 0.00 0.00 74 1013.5
20260507062227 16 354 0.0 6.4 0.00 0.00 0.00 75 1013.3
20260507062127 16 354 0.0 6.4 0.00 0.00 0.00 74 1013.5
20260507062027 16 353 1.6 6.4 0.00 0.00 0.00 74 1013.4
20260507061927 16 354 1.6 6.4 0.00 0.00 0.00 74 1013.3
20260507061827 15 350 1.6 6.4 0.00 0.00 0.00 74 1013.5
20260507061727 15 341 3.2 6.4 0.00 0.00 0.00 74 1013.4
20260507061627 15 335 3.2 6.4 0.00 0.00 0.00 75 1013.4
20260507061527 15 331 1.6 6.4 0.00 0.00 0.00 74 1013.3
20260507061428 15 327 3.2 6.4 0.00 0.00 0.00 74 1013.3
20260507061327 15 315 3.2 6.4 0.00 0.00 0.00 74 1013.5
20260507061227 15 303 0.0 6.4 0.00 0.00 0.00 75 1013.4
20260507061127 15 311 0.0 6.4 0.00 0.00 0.00 75 1013.4
20260507061027 15 318 0.0 6.4 0.00 0.00 0.00 75 1013.3
20260507060927 15 319 0.0 6.4 0.00 0.00 0.00 75 1013.4
20260507060827 15 319 1.6 6.4 0.00 0.00 0.00 75 1013.4
20260507060727 15 320 1.6 6.4 0.00 0.00 0.00 75 1013.5
20260507060627 15 322 3.2 6.4 0.00 0.00 0.00 75 1013.3
20260507060527 15 324 3.2 6.4 0.00 0.00 0.00 75 1013.5
20260507060427 15 326 3.2 6.4 0.00 0.00 0.00 75 1013.6
20260507060327 15 329 3.2 6.4 0.00 0.00 0.00 75 1013.7
20260507060227 15 337 3.2 9.7 0.00 0.00 0.00 75 1013.6
20260507060127 15 337 4.8 9.7 0.00 0.00 0.00 74 1013.6
20260507060027 16 338 3.2 9.7 0.00 0.00 0.00 75 1013.5
20260507055927 16 339 3.2 9.7 0.00 0.00 0.00 75 1013.5
20260507055827 16 349 3.2 9.7 0.00 0.00 0.00 74 1013.5
20260507055727 16 358 3.2 9.7 0.00 0.00 0.00 74 1013.3
20260507055627 16 3 1.6 9.7 0.00 0.00 0.00 74 1013.6
20260507055527 15 7 1.6 9.7 0.00 0.00 0.00 74 1013.2
20260507055427 15 9 1.6 9.7 0.00 0.00 0.00 74 1013.1
20260507055327 15 9 1.6 9.7 0.00 0.00 0.00 74 1013.2
20260507055227 15 7 4.8 9.7 0.00 0.00 0.00 74 1013.1
20260507055127 15 8 4.8 9.7 0.00 0.00 0.00 74 1013.2
20260507055027 15 10 3.2 9.7 0.00 0.00 0.00 74 1013.3
20260507054927 15 10 3.2 9.7 0.00 0.00 0.00 74 1013.1
20260507054827 15 8 4.8 9.7 0.00 0.00 0.00 74 1013.3
20260507054727 16 6 3.2 9.7 0.00 0.00 0.00 74 1013.0
20260507054627 15 7 6.4 9.7 0.00 0.00 0.00 74 1013.2
20260507054527 15 9 6.4 9.7 0.00 0.00 0.00 74 1013.1
20260507054427 16 15 6.4 9.7 0.00 0.00 0.00 74 1013.0
20260507054327 16 19 3.2 9.7 0.00 0.00 0.00 74 1013.1
20260507054227 15 25 4.8 9.7 0.00 0.00 0.00 74 1013.2
20260507054127 15 28 3.2 9.7 0.00 0.00 0.00 74 1013.0
20260507054027 15 28 4.8 9.7 0.00 0.00 0.00 74 1013.0
20260507053927 15 36 3.2 9.7 0.00 0.00 0.00 74 1013.1
20260507053827 15 38 3.2 9.7 0.00 0.00 0.00 74 1013.1
20260507053727 15 38 3.2 9.7 0.00 0.00 0.00 73 1013.2
20260507053627 15 38 3.2 9.7 0.00 0.00 0.00 73 1013.1
20260507053527 15 39 4.8 9.7 0.00 0.00 0.00 73 1013.0
20260507053427 15 39 3.2 9.7 0.00 0.00 0.00 73 1013.0
20260507053327 15 38 3.2 9.7 0.00 0.00 0.00 73 1013.1
20260507053227 15 40 3.2 9.7 0.00 0.00 0.00 73 1013.1
20260507053127 15 37 6.4 9.7 0.00 0.00 0.00 73 1013.0
20260507053027 15 39 3.2 6.4 0.00 0.00 0.00 72 1012.9
20260507052927 15 29 3.2 6.4 0.00 0.00 0.00 72 1012.8
20260507052827 15 23 3.2 6.4 0.00 0.00 0.00 72 1013.1
20260507052727 15 21 3.2 6.4 0.00 0.00 0.00 72 1012.9
20260507052627 15 17 3.2 6.4 0.00 0.00 0.00 71 1013.1
20260507052527 15 13 3.2 6.4 0.00 0.00 0.00 71 1013.1
20260507052427 15 10 3.2 6.4 0.00 0.00 0.00 70 1012.9
20260507052327 15 7 1.6 6.4 0.00 0.00 0.00 70 1013.0
20260507052227 15 5 3.2 6.4 0.00 0.00 0.00 70 1012.8
20260507052127 15 11 1.6 6.4 0.00 0.00 0.00 70 1013.0
20260507052027 15 14 3.2 6.4 0.00 0.00 0.00 69 1012.9
20260507051927 15 14 3.2 6.4 0.00 0.00 0.00 69 1012.8
20260507051827 15 18 3.2 6.4 0.00 0.00 0.00 69 1012.8
20260507051727 15 24 3.2 6.4 0.00 0.00 0.00 69 1012.7
20260507051627 15 25 3.2 6.4 0.00 0.00 0.00 69 1012.8
20260507051527 15 27 3.2 12.9 0.00 0.00 0.00 68 1012.7
20260507051427 15 29 3.2 12.9 0.00 0.00 0.00 68 1012.8
20260507051327 15 31 3.2 12.9 0.00 0.00 0.00 68 1012.8
20260507051227 15 33 3.2 12.9 0.00 0.00 0.00 68 1012.7
20260507051127 16 29 3.2 12.9 0.00 0.00 0.00 67 1012.8
20260507051027 15 26 1.6 12.9 0.00 0.00 0.00 66 1012.6
20260507050927 15 28 1.6 12.9 0.00 0.00 0.00 66 1012.7
20260507050827 16 23 3.2 12.9 0.00 0.00 0.00 65 1012.6
20260507050727 16 14 3.2 12.9 0.00 0.00 0.00 65 1012.6
20260507050627 16 9 4.8 12.9 0.00 0.00 0.00 65 1012.9
20260507050527 16 353 3.2 12.9 0.00 0.00 0.00 65 1012.6
20260507050427 16 325 1.6 3.2 0.00 0.00 0.00 64 1012.6
20260507050327 16 317 1.6 3.2 0.00 0.00 0.00 64 1012.7
20260507050227 16 317 0.0 3.2 0.00 0.00 0.00 64 1012.5
20260507050127 16 316 0.0 3.2 0.00 0.00 0.00 64 1012.7
20260507050027 16 319 0.0 3.2 0.00 0.00 0.00 64 1012.6
20260507045927 16 323 0.0 3.2 0.00 0.00 0.00 63 1012.5
20260507045827 16 326 0.0 3.2 0.00 0.00 0.00 63 1012.7
20260507045727 16 331 0.0 3.2 0.00 0.00 0.00 63 1012.5
20260507045627 16 340 1.6 3.2 0.00 0.00 0.00 63 1012.3
20260507045527 16 349 3.2 6.4 0.00 0.00 0.00 63 1012.4
20260507045427 16 358 1.6 6.4 0.00 0.00 0.00 63 1012.4
20260507045327 16 5 1.6 6.4 0.00 0.00 0.00 63 1012.4
20260507045227 16 11 1.6 6.4 0.00 0.00 0.00 63 1012.3
20260507045127 16 16 1.6 6.4 0.00 0.00 0.00 63 1012.3
20260507045027 16 12 1.6 6.4 0.00 0.00 0.00 63 1012.2
20260507044927 16 8 1.6 6.4 0.00 0.00 0.00 62 1012.3
20260507044827 16 5 1.6 6.4 0.00 0.00 0.00 62 1012.3
20260507044727 16 1 3.2 6.4 0.00 0.00 0.00 62 1012.1
20260507044627 16 354 3.2 11.3 0.00 0.00 0.00 61 1012.3
20260507044527 16 350 1.6 11.3 0.00 0.00 0.00 61 1012.1
20260507044427 16 345 3.2 11.3 0.00 0.00 0.00 61 1012.0
20260507044326 16 343 3.2 11.3 0.00 0.00 0.00 61 1012.0
20260507044227 16 340 4.8 11.3 0.00 0.00 0.00 60 1012.2
20260507044127 16 338 4.8 12.9 0.00 0.00 0.00 60 1012.0
20260507044027 16 337 4.8 12.9 0.00 0.00 0.00 60 1012.1
20260507043927 16 336 3.2 12.9 0.00 0.00 0.00 60 1012.1
20260507043827 16 336 3.2 12.9 0.00 0.00 0.00 60 1012.0
20260507043727 16 336 6.4 12.9 0.00 0.00 0.00 60 1012.0
20260507043627 16 334 8.0 12.9 0.00 0.00 0.00 60 1012.0
20260507043527 16 333 6.4 12.9 0.00 0.00 0.00 60 1011.9
20260507043427 16 332 6.4 12.9 0.00 0.00 0.00 60 1012.1
20260507043327 16 330 6.4 12.9 0.00 0.00 0.00 60 1011.9
20260507043227 16 328 6.4 12.9 0.00 0.00 0.00 60 1012.1
20260507043127 16 324 6.4 11.3 0.00 0.00 0.00 61 1012.0
20260507043027 16 322 6.4 9.7 0.00 0.00 0.00 61 1012.0
20260507042927 16 319 6.4 9.7 0.00 0.00 0.00 61 1012.0
20260507042827 16 318 4.8 9.7 0.00 0.00 0.00 61 1012.0
20260507042727 16 316 4.8 9.7 0.00 0.00 0.00 61 1011.7
20260507042627 16 318 6.4 9.7 0.00 0.00 0.00 62 1012.0
20260507042527 16 321 6.4 9.7 0.00 0.00 0.00 62 1011.9
20260507042427 16 324 6.4 9.7 0.00 0.00 0.00 62 1011.9
20260507042327 16 329 3.2 9.7 0.00 0.00 0.00 62 1012.2
20260507042227 16 331 6.4 9.7 0.00 0.00 0.00 61 1012.0
20260507042127 16 333 6.4 9.7 0.00 0.00 0.00 61 1011.9
20260507042027 16 336 3.2 9.7 0.00 0.00 0.00 61 1012.1
20260507041927 16 340 3.2 9.7 0.00 0.00 0.00 61 1012.0
20260507041827 16 344 4.8 9.7 0.00 0.00 0.00 61 1012.0
20260507041727 16 346 6.4 9.7 0.00 0.00 0.00 62 1012.2
20260507041626 16 346 4.8 9.7 0.00 0.00 0.00 62 1012.1
20260507041527 16 344 6.4 9.7 0.00 0.00 0.00 62 1012.0
20260507041427 16 344 3.2 9.7 0.00 0.00 0.00 62 1012.1
20260507041326 16 341 3.2 9.7 0.00 0.00 0.00 62 1012.1
20260507041227 16 341 3.2 11.3 0.00 0.00 0.00 62 1011.9
20260507041127 16 340 4.8 11.3 0.00 0.00 0.00 62 1012.0
20260507041027 16 339 3.2 11.3 0.00 0.00 0.00 62 1012.1
20260507040927 16 337 3.2 11.3 0.00 0.00 0.00 62 1012.1
20260507040826 16 334 3.2 11.3 0.00 0.00 0.00 62 1012.2
20260507040727 16 332 3.2 11.3 0.00 0.00 0.00 61 1012.0
20260507040627 16 331 4.8 11.3 0.00 0.00 0.00 61 1012.1
20260507040526 16 331 4.8 11.3 0.00 0.00 0.00 62 1012.1
20260507040427 16 331 6.4 11.3 0.00 0.00 0.00 61 1012.3
20260507040327 16 329 4.8 11.3 0.00 0.00 0.00 61 1012.1
20260507040227 16 327 6.4 11.3 0.00 0.00 0.00 61 1012.1
20260507040127 16 326 6.4 11.3 0.00 0.00 0.00 61 1011.9
20260507040027 16 327 6.4 11.3 0.00 0.00 0.00 61 1012.0
20260507035927 16 326 6.4 11.3 0.00 0.00 0.00 61 1011.9
20260507035827 16 325 8.0 11.3 0.00 0.00 0.00 61 1011.9
20260507035727 16 325 6.4 11.3 0.00 0.00 0.00 62 1011.9
20260507035627 16 324 6.4 11.3 0.00 0.00 0.00 62 1011.8
20260507035527 16 325 6.4 11.3 0.00 0.00 0.00 62 1011.7
20260507035427 16 322 8.0 11.3 0.00 0.00 0.00 62 1011.9
20260507035326 16 321 6.4 11.3 0.00 0.00 0.00 61 1011.9
20260507035227 16 321 6.4 11.3 0.00 0.00 0.00 61 1011.8
20260507035127 16 319 6.4 11.3 0.00 0.00 0.00 62 1011.8
20260507035027 16 315 6.4 11.3 0.00 0.00 0.00 62 1011.7
20260507034926 16 314 8.0 11.3 0.00 0.00 0.00 62 1011.9
20260507034826 16 314 6.4 11.3 0.00 0.00 0.00 63 1011.8
20260507034727 16 313 6.4 11.3 0.00 0.00 0.00 63 1011.7
20260507034627 15 313 6.4 11.3 0.00 0.00 0.00 63 1011.8
20260507034527 15 313 6.4 11.3 0.00 0.00 0.00 63 1011.8
20260507034426 15 314 6.4 11.3 0.00 0.00 0.00 63 1011.6
20260507034327 15 314 6.4 11.3 0.00 0.00 0.00 64 1011.9
20260507034226 15 314 6.4 11.3 0.00 0.00 0.00 64 1011.6
20260507034127 15 316 6.4 11.3 0.00 0.00 0.00 64 1011.7
20260507034027 15 316 6.4 11.3 0.00 0.00 0.00 64 1011.8
20260507033927 15 317 6.4 11.3 0.00 0.00 0.00 64 1011.7
20260507033827 15 317 8.0 11.3 0.00 0.00 0.00 64 1011.5
20260507033727 15 318 6.4 11.3 0.00 0.00 0.00 64 1011.7
20260507033627 15 316 6.4 11.3 0.00 0.00 0.00 64 1011.7
20260507033527 15 315 6.4 11.3 0.00 0.00 0.00 64 1011.7
20260507033427 15 314 6.4 11.3 0.00 0.00 0.00 64 1011.6
20260507033327 15 314 6.4 11.3 0.00 0.00 0.00 64 1011.7
20260507033227 15 311 6.4 11.3 0.00 0.00 0.00 64 1011.5
20260507033127 15 308 6.4 11.3 0.00 0.00 0.00 64 1011.7
20260507033027 15 306 6.4 11.3 0.00 0.00 0.00 65 1011.5
20260507032926 15 307 3.2 11.3 0.00 0.00 0.00 66 1011.6
20260507032826 15 307 4.8 12.9 0.00 0.00 0.00 66 1011.5
20260507032726 15 305 3.2 12.9 0.00 0.00 0.00 67 1011.4
20260507032627 15 305 3.2 12.9 0.00 0.00 0.00 67 1011.5
20260507032526 15 307 3.2 12.9 0.00 0.00 0.00 66 1011.5
20260507032427 15 309 3.2 12.9 0.00 0.00 0.00 66 1011.5
20260507032327 15 310 3.2 12.9 0.00 0.00 0.00 66 1011.5
20260507032227 15 313 6.4 12.9 0.00 0.00 0.00 66 1011.4
20260507032126 15 315 6.4 12.9 0.00 0.00 0.00 66 1011.4
20260507032027 15 316 9.7 12.9 0.00 0.00 0.00 65 1011.5
20260507031927 15 316 8.0 12.9 0.00 0.00 0.00 65 1011.2
20260507031827 15 316 6.4 11.3 0.00 0.00 0.00 65 1011.4
20260507031727 15 316 6.4 9.7 0.00 0.00 0.00 65 1011.5
20260507031627 15 316 4.8 9.7 0.00 0.00 0.00 65 1011.2
20260507031527 15 315 6.4 9.7 0.00 0.00 0.00 66 1011.5
20260507031427 15 313 6.4 9.7 0.00 0.00 0.00 66 1011.5
20260507031327 15 313 6.4 9.7 0.00 0.00 0.00 66 1011.2
20260507031227 15 313 6.4 9.7 0.00 0.00 0.00 66 1011.4
20260507031127 15 313 8.0 9.7 0.00 0.00 0.00 66 1011.4
20260507031027 15 313 8.0 9.7 0.00 0.00 0.00 66 1011.3
20260507030927 15 313 6.4 9.7 0.00 0.00 0.00 65 1011.3
20260507030827 15 313 6.4 9.7 0.00 0.00 0.00 65 1011.5
20260507030726 15 316 6.4 9.7 0.00 0.00 0.00 65 1011.4
20260507030627 15 318 6.4 9.7 0.00 0.00 0.00 65 1011.5
20260507030528 15 319 4.8 6.4 0.00 0.00 0.00 65 1011.4
20260507030426 15 321 6.4 6.4 0.00 0.00 0.00 64 1011.5
20260507030327 15 323 4.8 6.4 0.00 0.00 0.00 64 1011.2
20260507030227 16 326 4.8 6.4 0.00 0.00 0.00 63 1011.3
20260507030126 16 330 4.8 6.4 0.00 0.00 0.00 63 1011.5
20260507030027 16 333 3.2 6.4 0.00 0.00 0.00 63 1011.3
20260507025927 16 337 3.2 6.4 0.00 0.00 0.00 63 1011.5
20260507025826 16 341 3.2 3.2 0.00 0.00 0.00 63 1011.1
20260507025726 16 338 3.2 3.2 0.00 0.00 0.00 63 1011.3
20260507025627 16 333 3.2 3.2 0.00 0.00 0.00 63 1011.3
20260507025527 16 330 1.6 3.2 0.00 0.00 0.00 63 1011.3
20260507025427 16 330 3.2 3.2 0.00 0.00 0.00 63 1011.2
20260507025327 16 329 1.6 3.2 0.00 0.00 0.00 63 1011.1
20260507025227 16 327 3.2 3.2 0.00 0.00 0.00 63 1011.1
20260507025127 16 326 3.2 3.2 0.00 0.00 0.00 63 1011.2
20260507025027 15 328 1.6 3.2 0.00 0.00 0.00 63 1011.4
20260507024927 15 329 3.2 3.2 0.00 0.00 0.00 64 1011.3
20260507024827 15 327 3.2 3.2 0.00 0.00 0.00 64 1011.4
20260507024727 15 322 3.2 3.2 0.00 0.00 0.00 65 1011.4
20260507024627 15 325 1.6 3.2 0.00 0.00 0.00 65 1011.4
20260507024527 15 324 0.0 3.2 0.00 0.00 0.00 66 1011.4
20260507024426 15 318 0.0 3.2 0.00 0.00 0.00 66 1011.3
20260507024326 15 315 0.0 3.2 0.00 0.00 0.00 67 1011.4
20260507024227 15 312 0.0 3.2 0.00 0.00 0.00 67 1011.4
20260507024127 15 306 0.0 3.2 0.00 0.00 0.00 67 1011.2
20260507024027 15 300 0.0 6.4 0.00 0.00 0.00 67 1011.3
20260507023926 15 297 1.6 6.4 0.00 0.00 0.00 67 1011.5
20260507023827 15 285 1.6 6.4 0.00 0.00 0.00 68 1011.4
20260507023727 15 279 1.6 6.4 0.00 0.00 0.00 68 1011.2
20260507023627 15 273 0.0 6.4 0.00 0.00 0.00 68 1011.3
20260507023526 15 270 0.0 6.4 0.00 0.00 0.00 69 1011.5
20260507023427 15 267 1.6 6.4 0.00 0.00 0.00 69 1011.3
20260507023326 15 263 3.2 6.4 0.00 0.00 0.00 69 1011.5
20260507023227 14 259 3.2 6.4 0.00 0.00 0.00 69 1011.3
20260507023127 14 258 3.2 6.4 0.00 0.00 0.00 69 1011.3
20260507023027 15 253 3.2 6.4 0.00 0.00 0.00 68 1011.2
20260507022926 14 248 3.2 6.4 0.00 0.00 0.00 68 1011.3
20260507022826 15 250 4.8 6.4 0.00 0.00 0.00 68 1011.2
20260507022726 15 251 4.8 6.4 0.00 0.00 0.00 68 1011.3
20260507022626 15 255 3.2 6.4 0.00 0.00 0.00 68 1011.2
20260507022526 15 304 1.6 3.2 0.00 0.00 0.00 68 1011.2
20260507022427 15 55 1.6 3.2 0.00 0.00 0.00 68 1011.3
20260507022327 15 55 1.6 6.4 0.00 0.00 0.00 68 1010.9
20260507022228 15 55 0.0 6.4 0.00 0.00 0.00 68 1011.0
20260507022127 15 54 0.0 6.4 0.00 0.00 0.00 68 1011.1
20260507022027 15 55 0.0 6.4 0.00 0.00 0.00 68 1010.9
20260507021926 15 54 0.0 6.4 0.00 0.00 0.00 67 1010.8
20260507021826 15 52 0.0 6.4 0.00 0.00 0.00 67 1011.0
20260507021727 15 51 0.0 6.4 0.00 0.00 0.00 67 1010.8
20260507021627 15 50 0.0 6.4 0.00 0.00 0.00 67 1010.7
20260507021527 15 47 3.2 6.4 0.00 0.00 0.00 67 1010.8
20260507021427 15 47 3.2 6.4 0.00 0.00 0.00 67 1010.7
20260507021328 15 47 3.2 9.7 0.00 0.00 0.00 67 1010.8
20260507021227 15 40 4.8 9.7 0.00 0.00 0.00 66 1010.7
20260507021127 15 39 4.8 9.7 0.00 0.00 0.00 66 1011.0
20260507021026 15 36 6.4 9.7 0.00 0.00 0.00 66 1010.7
20260507020926 15 33 6.4 9.7 0.00 0.00 0.00 65 1010.8
20260507020827 15 29 6.4 9.7 0.00 0.00 0.00 65 1010.8
20260507020726 15 19 3.2 9.7 0.00 0.00 0.00 65 1010.9
20260507020626 16 1 3.2 9.7 0.00 0.00 0.00 64 1010.8
20260507020527 16 339 3.2 9.7 0.00 0.00 0.00 63 1010.8
20260507020427 16 290 3.2 9.7 0.00 0.00 0.00 63 1010.8
20260507020327 16 263 4.8 9.7 0.00 0.00 0.00 63 1010.9
20260507020226 16 243 0.0 3.2 0.00 0.00 0.00 63 1010.9
20260507020127 16 242 0.0 6.4 0.00 0.00 0.00 63 1011.0
20260507020026 16 242 0.0 6.4 0.00 0.00 0.00 63 1011.0
20260507015927 15 242 0.0 6.4 0.00 0.00 0.00 62 1010.8
20260507015826 15 242 1.6 6.4 0.00 0.00 0.00 62 1010.9
20260507015726 15 243 3.2 6.4 0.00 0.00 0.00 62 1010.9
20260507015627 15 245 3.2 6.4 0.00 0.00 0.00 63 1011.0
20260507015527 15 247 3.2 6.4 0.00 0.00 0.00 63 1011.0
20260507015426 15 248 3.2 6.4 0.00 0.00 0.00 63 1011.1
20260507015326 15 250 1.6 6.4 0.00 0.00 0.00 63 1010.9
20260507015226 15 251 1.6 6.4 0.00 0.00 0.00 63 1010.9
20260507015127 15 252 3.2 6.4 0.00 0.00 0.00 63 1010.9
20260507015027 15 257 3.2 6.4 0.00 0.00 0.00 62 1010.8
20260507014926 15 268 3.2 6.4 0.00 0.00 0.00 63 1010.9
20260507014827 15 280 3.2 3.2 0.00 0.00 0.00 62 1010.9
20260507014727 16 292 1.6 3.2 0.00 0.00 0.00 63 1010.9
20260507014626 16 306 0.0 3.2 0.00 0.00 0.00 62 1010.7
20260507014527 16 332 1.6 3.2 0.00 0.00 0.00 61 1011.1
20260507014426 16 359 1.6 3.2 0.00 0.00 0.00 61 1010.6
20260507014326 16 21 0.0 3.2 0.00 0.00 0.00 61 1010.8
20260507014227 16 35 0.0 3.2 0.00 0.00 0.00 61 1010.7
20260507014126 16 42 0.0 3.2 0.00 0.00 0.00 61 1010.8
20260507014026 16 49 0.0 3.2 0.00 0.00 0.00 61 1010.6
20260507013926 16 54 0.0 3.2 0.00 0.00 0.00 61 1010.8
20260507013826 16 55 0.0 3.2 0.00 0.00 0.00 61 1010.5
20260507013726 16 55 0.0 3.2 0.00 0.00 0.00 61 1010.6
20260507013626 16 60 1.6 3.2 0.00 0.00 0.00 61 1010.5
20260507013526 16 65 1.6 3.2 0.00 0.00 0.00 61 1010.4
20260507013426 16 69 1.6 3.2 0.00 0.00 0.00 61 1010.4
20260507013326 16 71 3.2 3.2 0.00 0.00 0.00 60 1010.5
20260507013226 16 62 3.2 3.2 0.00 0.00 0.00 60 1010.4
20260507013127 16 49 1.6 3.2 0.00 0.00 0.00 60 1010.3
20260507013027 16 41 0.0 3.2 0.00 0.00 0.00 60 1010.4
20260507012926 16 22 0.0 3.2 0.00 0.00 0.00 61 1010.4
20260507012826 16 22 0.0 3.2 0.00 0.00 0.00 61 1010.6
20260507012727 16 13 0.0 3.2 0.00 0.00 0.00 61 1010.5
20260507012626 16 5 0.0 3.2 0.00 0.00 0.00 61 1010.5
20260507012527 16 358 0.0 3.2 0.00 0.00 0.00 61 1010.4
20260507012427 16 354 0.0 3.2 0.00 0.00 0.00 61 1010.5
20260507012326 16 353 0.0 3.2 0.00 0.00 0.00 61 1010.5
20260507012226 15 349 0.0 3.2 0.00 0.00 0.00 61 1010.5
20260507012127 16 347 0.0 3.2 0.00 0.00 0.00 61 1010.6
20260507012026 15 345 1.6 3.2 0.00 0.00 0.00 62 1010.5
20260507011926 15 343 0.0 3.2 0.00 0.00 0.00 62 1010.6
20260507011826 15 343 0.0 3.2 0.00 0.00 0.00 62 1010.4
20260507011727 15 347 0.0 3.2 0.00 0.00 0.00 62 1010.4
20260507011627 15 351 1.6 3.2 0.00 0.00 0.00 62 1010.3
20260507011527 15 354 1.6 3.2 0.00 0.00 0.00 62 1010.6
20260507011426 15 358 3.2 3.2 0.00 0.00 0.00 62 1010.3
20260507011326 15 1 3.2 3.2 0.00 0.00 0.00 62 1010.3
20260507011226 15 7 3.2 6.4 0.00 0.00 0.00 62 1010.2
20260507011126 15 12 3.2 6.4 0.00 0.00 0.00 62 1010.2
20260507011026 15 20 3.2 6.4 0.00 0.00 0.00 62 1010.4
20260507010926 15 25 3.2 6.4 0.00 0.00 0.00 62 1010.2
20260507010827 15 29 1.6 6.4 0.00 0.00 0.00 62 1010.3
20260507010727 15 26 1.6 6.4 0.00 0.00 0.00 62 1010.4
20260507010626 15 25 3.2 6.4 0.00 0.00 0.00 62 1010.3
20260507010526 15 27 3.2 6.4 0.00 0.00 0.00 62 1010.2
20260507010426 15 28 3.2 6.4 0.00 0.00 0.00 63 1010.4
20260507010326 15 29 3.2 6.4 0.00 0.00 0.00 63 1010.0
20260507010226 15 35 3.2 6.4 0.00 0.00 0.00 63 1010.4
20260507010127 15 39 3.2 6.4 0.00 0.00 0.00 63 1010.2
20260507010027 15 41 3.2 6.4 0.00 0.00 0.00 63 1010.5
20260507005926 15 44 3.2 6.4 0.00 0.00 0.00 63 1010.4
20260507005827 15 50 3.2 6.4 0.00 0.00 0.00 63 1010.4
20260507005727 15 54 1.6 6.4 0.00 0.00 0.00 63 1010.4
20260507005626 15 53 3.2 6.4 0.00 0.00 0.00 63 1010.5
20260507005526 15 53 1.6 6.4 0.00 0.00 0.00 63 1010.5
20260507005426 15 54 3.2 9.7 0.00 0.00 0.00 62 1010.3
20260507005326 16 54 3.2 9.7 0.00 0.00 0.00 62 1010.1
20260507005227 16 53 3.2 9.7 0.00 0.00 0.00 61 1010.4
20260507005126 16 48 4.8 9.7 0.00 0.00 0.00 61 1010.3
20260507005026 16 47 4.8 9.7 0.00 0.00 0.00 62 1010.4
20260507004927 16 44 3.2 9.7 0.00 0.00 0.00 62 1010.3
20260507004826 15 40 4.8 9.7 0.00 0.00 0.00 62 1010.2
20260507004727 15 38 6.4 9.7 0.00 0.00 0.00 63 1010.4
20260507004626 15 42 3.2 9.7 0.00 0.00 0.00 63 1010.3
20260507004526 15 44 4.8 9.7 0.00 0.00 0.00 63 1010.6
20260507004427 15 44 4.8 9.7 0.00 0.00 0.00 63 1010.5
20260507004326 15 49 3.2 6.4 0.00 0.00 0.00 64 1010.5
20260507004227 15 51 3.2 6.4 0.00 0.00 0.00 63 1010.5
20260507004127 15 56 3.2 6.4 0.00 0.00 0.00 63 1010.4
20260507004027 15 58 3.2 6.4 0.00 0.00 0.00 63 1010.4
20260507003927 15 60 4.8 6.4 0.00 0.00 0.00 63 1010.2
20260507003826 15 63 4.8 6.4 0.00 0.00 0.00 63 1010.5
20260507003727 15 65 6.4 6.4 0.00 0.00 0.00 64 1010.5
20260507003626 15 65 4.8 9.7 0.00 0.00 0.00 64 1010.5
20260507003528 15 67 3.2 9.7 0.00 0.00 0.00 65 1010.3
20260507003426 15 67 3.2 11.3 0.00 0.00 0.00 66 1010.5
20260507003326 15 63 3.2 11.3 0.00 0.00 0.00 66 1010.4
20260507003226 15 61 3.2 11.3 0.00 0.00 0.00 66 1010.5
20260507003127 15 60 3.2 11.3 0.00 0.00 0.00 65 1010.5
20260507003027 15 58 3.2 11.3 0.00 0.00 0.00 65 1010.6
20260507002926 15 54 3.2 11.3 0.00 0.00 0.00 65 1010.7
20260507002826 15 48 3.2 11.3 0.00 0.00 0.00 64 1010.4
20260507002727 15 45 6.4 11.3 0.00 0.00 0.00 64 1010.5
20260507002626 15 42 6.4 11.3 0.00 0.00 0.00 64 1010.5
20260507002526 15 39 8.0 11.3 0.00 0.00 0.00 64 1010.5
20260507002427 15 38 8.0 11.3 0.00 0.00 0.00 64 1010.5
20260507002326 15 36 6.4 9.7 0.00 0.00 0.00 64 1010.5
20260507002227 15 35 6.4 9.7 0.00 0.00 0.00 64 1010.3
20260507002126 15 33 4.8 9.7 0.00 0.00 0.00 64 1010.4
20260507002026 16 36 4.8 9.7 0.00 0.00 0.00 64 1010.4
20260507001926 16 41 4.8 9.7 0.00 0.00 0.00 63 1010.5
20260507001826 16 48 3.2 9.7 0.00 0.00 0.00 63 1010.6
20260507001726 15 51 6.4 9.7 0.00 0.00 0.00 63 1010.3
20260507001626 15 53 6.4 6.4 0.00 0.00 0.00 64 1010.6
20260507001526 16 55 3.2 6.4 0.00 0.00 0.00 63 1010.7
20260507001426 16 57 4.8 6.4 0.00 0.00 0.00 63 1010.5
20260507001326 16 59 4.8 6.4 0.00 0.00 0.00 63 1010.5
20260507001226 16 63 4.8 6.4 0.00 0.00 0.00 63 1010.4
20260507001126 16 66 3.2 6.4 0.00 0.00 0.00 63 1010.6
20260507001026 16 67 4.8 6.4 0.00 0.00 0.00 62 1010.4
20260507000926 16 67 3.2 6.4 0.00 0.00 0.00 63 1010.5
20260507000826 15 67 3.2 9.7 0.00 0.00 0.00 66 1010.6
20260507000726 15 72 3.2 9.7 0.00 0.00 0.00 66 1010.5
20260507000626 15 73 3.2 9.7 0.00 0.00 0.00 66 1010.5
20260507000526 15 73 3.2 11.3 0.00 0.00 0.00 66 1010.4
20260507000427 15 70 3.2 11.3 0.00 0.00 0.00 66 1010.6
20260507000328 15 70 3.2 11.3 0.00 0.00 0.00 66 1010.5
20260507000227 15 66 3.2 11.3 0.00 0.00 0.00 66 1010.6
20260507000126 15 64 3.2 11.3 0.00 0.00 0.00 66 1010.6
20260507000027 15 60 3.2 11.3 0.00 0.00 0.00 66 1010.6
20260506235926 15 57 3.2 11.3 0.00 0.00 0.00 66 1010.5
20260506235826 16 52 4.8 11.3 0.00 0.00 0.00 65 1010.5
20260506235726 16 49 4.8 11.3 0.00 0.00 0.00 65 1010.6
20260506235626 16 45 6.4 11.3 0.00 0.00 0.00 65 1010.3
20260506235526 16 42 6.4 11.3 0.00 0.00 0.00 65 1010.6
20260506235426 16 41 6.4 9.7 0.00 0.00 0.00 64 1010.4
20260506235326 16 38 6.4 9.7 0.00 0.00 0.00 64 1010.5
20260506235226 16 38 6.4 6.4 0.00 0.00 0.00 64 1010.4
20260506235126 16 37 3.2 6.4 0.00 0.00 0.00 64 1010.4
20260506235026 16 45 3.2 6.4 0.00 0.00 0.00 64 1010.3
20260506234926 16 47 3.2 6.4 0.00 0.00 0.00 64 1010.3
20260506234827 16 51 3.2 6.4 0.00 0.00 0.00 64 1010.4
20260506234726 16 51 3.2 6.4 0.00 0.00 0.00 63 1010.4
20260506234626 16 51 1.6 6.4 0.00 0.00 0.00 63 1010.4
20260506234526 16 51 1.6 6.4 0.00 0.00 0.00 63 1010.5
20260506234426 16 51 1.6 6.4 0.00 0.00 0.00 63 1010.6
20260506234326 16 51 3.2 6.4 0.00 0.00 0.00 63 1010.3
20260506234227 16 52 3.2 6.4 0.00 0.00 0.00 62 1010.6
20260506234127 16 54 3.2 6.4 0.00 0.00 0.00 62 1010.5
20260506234026 16 54 4.8 6.4 0.00 0.00 0.00 62 1010.6
20260506233927 16 53 3.2 6.4 0.00 0.00 0.00 62 1010.8
20260506233826 16 51 3.2 6.4 0.00 0.00 0.00 61 1010.7
20260506233726 16 52 3.2 6.4 0.00 0.00 0.00 61 1010.6
20260506233626 16 47 3.2 6.4 0.00 0.00 0.00 61 1010.7
20260506233526 16 43 3.2 6.4 0.00 0.00 0.00 61 1010.7
20260506233426 16 41 3.2 6.4 0.00 0.00 0.00 60 1010.6
20260506233326 16 37 3.2 6.4 0.00 0.00 0.00 60 1010.7
20260506233226 16 29 3.2 6.4 0.00 0.00 0.00 60 1010.6
20260506233126 16 16 3.2 3.2 0.00 0.00 0.00 61 1010.5
20260506233026 16 11 3.2 3.2 0.00 0.00 0.00 61 1010.6
20260506232926 16 360 3.2 3.2 0.00 0.00 0.00 60 1010.7
20260506232826 16 350 3.2 3.2 0.00 0.00 0.00 60 1010.7
20260506232726 17 341 3.2 3.2 0.00 0.00 0.00 60 1010.6
20260506232626 17 334 3.2 3.2 0.00 0.00 0.00 60 1010.7
20260506232526 17 324 3.2 3.2 0.00 0.00 0.00 60 1010.7
20260506232426 17 316 3.2 3.2 0.00 0.00 0.00 60 1010.7
20260506232326 17 304 1.6 3.2 0.00 0.00 0.00 60 1010.9
20260506232226 16 292 1.6 3.2 0.00 0.00 0.00 60 1010.9
20260506232126 16 237 1.6 3.2 0.00 0.00 0.00 60 1010.8
20260506232026 16 163 0.0 3.2 0.00 0.00 0.00 61 1010.8
20260506231926 16 146 1.6 3.2 0.00 0.00 0.00 61 1010.9
20260506231826 16 139 1.6 3.2 0.00 0.00 0.00 60 1010.7
20260506231726 17 137 1.6 3.2 0.00 0.00 0.00 60 1010.9
20260506231626 17 136 0.0 3.2 0.00 0.00 0.00 59 1010.9
20260506231526 17 135 0.0 3.2 0.00 0.00 0.00 59 1011.0
20260506231426 17 130 3.2 3.2 0.00 0.00 0.00 59 1010.9
20260506231326 17 124 3.2 3.2 0.00 0.00 0.00 59 1010.7
20260506231227 17 121 3.2 3.2 0.00 0.00 0.00 59 1010.9
20260506231126 17 115 3.2 3.2 0.00 0.00 0.00 60 1011.0
20260506231026 16 96 1.6 3.2 0.00 0.00 0.00 60 1010.9
20260506230926 16 85 3.2 3.2 0.00 0.00 0.00 60 1011.0
20260506230826 16 73 1.6 3.2 0.00 0.00 0.00 60 1010.9
20260506230726 16 67 0.0 3.2 0.00 0.00 0.00 61 1010.9
20260506230626 16 67 0.0 3.2 0.00 0.00 0.00 60 1010.9
20260506230526 16 67 0.0 3.2 0.00 0.00 0.00 60 1011.0
20260506230426 16 67 0.0 3.2 0.00 0.00 0.00 60 1010.8
20260506230326 17 62 0.0 3.2 0.00 0.00 0.00 60 1010.9
20260506230226 17 57 0.0 3.2 0.00 0.00 0.00 60 1010.7
20260506230126 16 55 0.0 3.2 0.00 0.00 0.00 60 1011.0
20260506230026 16 51 1.6 3.2 0.00 0.00 0.00 60 1010.9
20260506225926 17 44 1.6 3.2 0.00 0.00 0.00 60 1010.7
20260506225826 17 32 0.0 3.2 0.00 0.00 0.00 60 1010.9
20260506225726 17 28 0.0 3.2 0.00 0.00 0.00 60 1010.9
20260506225626 17 27 0.0 3.2 0.00 0.00 0.00 60 1010.9
20260506225526 17 23 0.0 3.2 0.00 0.00 0.00 60 1011.0
20260506225426 17 23 0.0 3.2 0.00 0.00 0.00 61 1011.2
20260506225326 17 19 3.2 3.2 0.00 0.00 0.00 61 1010.8
20260506225226 17 14 0.0 3.2 0.00 0.00 0.00 61 1010.8
20260506225126 17 3 1.6 6.4 0.00 0.00 0.00 61 1010.8
20260506225026 17 357 0.0 6.4 0.00 0.00 0.00 61 1010.8
20260506224926 17 356 1.6 6.4 0.00 0.00 0.00 61 1010.9
20260506224826 17 356 1.6 6.4 0.00 0.00 0.00 60 1011.0
20260506224726 17 355 0.0 6.4 0.00 0.00 0.00 61 1011.0
20260506224626 17 359 3.2 6.4 0.00 0.00 0.00 60 1010.9
20260506224526 17 359 0.0 6.4 0.00 0.00 0.00 60 1011.0
20260506224426 17 359 1.6 6.4 0.00 0.00 0.00 60 1011.0
20260506224326 17 1 3.2 6.4 0.00 0.00 0.00 59 1010.9
20260506224226 17 3 4.8 6.4 0.00 0.00 0.00 60 1010.8
20260506224126 17 8 3.2 6.4 0.00 0.00 0.00 61 1010.7
20260506224026 16 12 3.2 6.4 0.00 0.00 0.00 61 1010.9
20260506223927 16 14 4.8 6.4 0.00 0.00 0.00 63 1011.0
20260506223826 16 15 6.4 6.4 0.00 0.00 0.00 63 1011.1
20260506223726 16 17 3.2 6.4 0.00 0.00 0.00 63 1011.0
20260506223626 16 12 4.8 6.4 0.00 0.00 0.00 63 1010.9
20260506223526 16 8 6.4 6.4 0.00 0.00 0.00 63 1011.0
20260506223426 16 11 3.2 6.4 0.00 0.00 0.00 62 1011.0
20260506223326 16 3 3.2 3.2 0.00 0.00 0.00 63 1011.2
20260506223226 16 341 3.2 3.2 0.00 0.00 0.00 62 1011.1
20260506223126 16 312 0.0 3.2 0.00 0.00 0.00 63 1011.2
20260506223026 16 303 1.6 3.2 0.00 0.00 0.00 63 1011.2
20260506222926 16 292 1.6 3.2 0.00 0.00 0.00 63 1011.1
20260506222826 17 283 0.0 3.2 0.00 0.00 0.00 63 1011.1
20260506222726 17 271 1.6 3.2 0.00 0.00 0.00 63 1011.1
20260506222626 16 264 0.0 3.2 0.00 0.00 0.00 62 1011.0
20260506222528 16 259 0.0 3.2 0.00 0.00 0.00 62 1011.1
20260506222426 16 256 0.0 3.2 0.00 0.00 0.00 62 1011.2
20260506222326 17 255 0.0 6.4 0.00 0.00 0.00 62 1011.2
20260506222226 16 256 1.6 6.4 0.00 0.00 0.00 62 1011.3
20260506222126 16 249 1.6 6.4 0.00 0.00 0.00 62 1011.0
20260506222026 16 241 1.6 6.4 0.00 0.00 0.00 62 1011.0
20260506221926 16 235 1.6 6.4 0.00 0.00 0.00 62 1011.2
20260506221826 17 234 0.0 6.4 0.00 0.00 0.00 62 1011.2
20260506221726 17 233 1.6 9.7 0.00 0.00 0.00 62 1011.1
20260506221626 17 231 3.2 9.7 0.00 0.00 0.00 62 1011.2
20260506221527 17 230 3.2 9.7 0.00 0.00 0.00 62 1011.2
20260506221426 17 228 1.6 9.7 0.00 0.00 0.00 62 1011.1
20260506221326 17 226 3.2 9.7 0.00 0.00 0.00 62 1011.2
20260506221226 17 225 3.2 9.7 0.00 0.00 0.00 61 1011.0
20260506221126 17 225 3.2 9.7 0.00 0.00 0.00 61 1011.0
20260506221026 17 228 3.2 9.7 0.00 0.00 0.00 61 1011.0
20260506220926 17 232 4.8 9.7 0.00 0.00 0.00 62 1011.3
20260506220826 17 236 6.4 9.7 0.00 0.00 0.00 62 1011.0
20260506220726 17 240 6.4 9.7 0.00 0.00 0.00 62 1011.0
20260506220626 17 265 4.8 6.4 0.00 0.00 0.00 62 1011.1
20260506220526 17 306 3.2 3.2 0.00 0.00 0.00 62 1010.9
20260506220426 17 318 3.2 3.2 0.00 0.00 0.00 62 1011.0
20260506220326 17 331 3.2 3.2 0.00 0.00 0.00 62 1011.0
20260506220226 17 338 3.2 3.2 0.00 0.00 0.00 62 1011.1
20260506220126 16 340 3.2 3.2 0.00 0.00 0.00 62 1011.0
20260506220028 16 331 3.2 3.2 0.00 0.00 0.00 61 1011.0
20260506215926 16 318 3.2 3.2 0.00 0.00 0.00 61 1011.0
20260506215826 16 308 3.2 3.2 0.00 0.00 0.00 61 1011.4
20260506215726 16 301 1.6 3.2 0.00 0.00 0.00 61 1011.1
20260506215626 17 291 1.6 3.2 0.00 0.00 0.00 61 1011.0
20260506215526 17 286 0.0 3.2 0.00 0.00 0.00 61 1011.0
20260506215426 17 283 1.6 3.2 0.00 0.00 0.00 61 1011.1
20260506215326 17 278 1.6 3.2 0.00 0.00 0.00 61 1011.3
20260506215226 17 271 1.6 3.2 0.00 0.00 0.00 61 1011.1
20260506215126 17 264 1.6 6.4 0.00 0.00 0.00 61 1010.9
20260506215026 17 256 1.6 6.4 0.00 0.00 0.00 60 1011.2
20260506214926 17 252 1.6 6.4 0.00 0.00 0.00 60 1011.1
20260506214826 17 248 0.0 6.4 0.00 0.00 0.00 60 1011.0
20260506214726 17 247 0.0 9.7 0.00 0.00 0.00 60 1011.2
20260506214626 17 247 0.0 9.7 0.00 0.00 0.00 59 1011.0
20260506214526 17 247 0.0 9.7 0.00 0.00 0.00 59 1010.8
20260506214426 17 247 0.0 9.7 0.00 0.00 0.00 59 1011.0
20260506214326 17 247 3.2 9.7 0.00 0.00 0.00 59 1011.1
20260506214226 17 245 3.2 9.7 0.00 0.00 0.00 59 1010.9
20260506214126 17 244 3.2 9.7 0.00 0.00 0.00 58 1010.9
20260506214026 17 240 3.2 9.7 0.00 0.00 0.00 58 1011.0
20260506213926 17 240 3.2 9.7 0.00 0.00 0.00 58 1011.1
20260506213826 17 234 6.4 9.7 0.00 0.00 0.00 58 1010.8
20260506213726 17 230 6.4 9.7 0.00 0.00 0.00 58 1011.1
20260506213626 17 222 4.8 6.4 0.00 0.00 0.00 58 1011.0
20260506213526 17 212 4.8 6.4 0.00 0.00 0.00 58 1011.2
20260506213426 17 197 3.2 6.4 0.00 0.00 0.00 58 1010.8
20260506213326 17 189 3.2 6.4 0.00 0.00 0.00 58 1010.9
20260506213226 17 174 3.2 6.4 0.00 0.00 0.00 58 1011.2
20260506213126 17 156 3.2 6.4 0.00 0.00 0.00 58 1011.1
20260506213026 17 157 3.2 6.4 0.00 0.00 0.00 58 1011.2
20260506212926 17 153 3.2 6.4 0.00 0.00 0.00 59 1011.2
20260506212826 17 149 3.2 6.4 0.00 0.00 0.00 59 1011.0
20260506212726 17 141 3.2 6.4 0.00 0.00 0.00 59 1010.9
20260506212626 17 136 1.6 6.4 0.00 0.00 0.00 60 1011.3
20260506212526 17 133 1.6 6.4 0.00 0.00 0.00 60 1011.1
20260506212426 17 132 1.6 6.4 0.00 0.00 0.00 60 1011.2
20260506212326 17 132 0.0 6.4 0.00 0.00 0.00 60 1011.3
20260506212226 17 129 3.2 6.4 0.00 0.00 0.00 60 1011.2
20260506212126 17 122 3.2 6.4 0.00 0.00 0.00 60 1011.2
20260506212026 17 117 3.2 6.4 0.00 0.00 0.00 59 1011.3
20260506211926 17 104 3.2 6.4 0.00 0.00 0.00 60 1011.1
20260506211826 17 102 3.2 3.2 0.00 0.00 0.00 60 1011.2
20260506211726 17 109 3.2 3.2 0.00 0.00 0.00 61 1011.3
20260506211626 17 121 1.6 3.2 0.00 0.00 0.00 60 1011.4
20260506211526 17 125 0.0 3.2 0.00 0.00 0.00 60 1011.3
20260506211426 17 134 0.0 3.2 0.00 0.00 0.00 59 1011.2
20260506211326 17 138 0.0 3.2 0.00 0.00 0.00 59 1011.3
20260506211226 17 143 1.6 3.2 0.00 0.00 0.00 59 1011.2
20260506211126 17 149 1.6 3.2 0.00 0.00 0.00 59 1011.1
20260506211026 17 152 1.6 6.4 0.00 0.00 0.00 59 1011.3
20260506210926 17 160 1.6 6.4 0.00 0.00 0.00 59 1011.2
20260506210826 17 167 0.0 6.4 0.00 0.00 0.00 59 1011.2
20260506210726 17 172 1.6 6.4 0.00 0.00 0.00 59 1011.2
20260506210627 17 174 1.6 6.4 0.00 0.00 0.00 59 1011.3
20260506210526 17 180 3.2 6.4 0.00 0.00 0.00 59 1011.2
20260506210426 17 180 1.6 6.4 0.00 0.00 0.00 59 1011.3
20260506210326 17 184 1.6 6.4 0.00 0.00 0.00 59 1011.2
20260506210226 17 185 0.0 6.4 0.00 0.00 0.00 58 1011.3
20260506210126 17 186 0.0 6.4 0.00 0.00 0.00 58 1011.1
20260506210026 17 188 3.2 6.4 0.00 0.00 0.00 58 1011.1
20260506205926 17 192 4.8 6.4 0.00 0.00 0.00 58 1011.4
20260506205826 17 192 4.8 6.4 0.00 0.00 0.00 58 1011.3
20260506205726 17 189 6.4 6.4 0.00 0.00 0.00 59 1011.1
20260506205626 17 185 4.8 6.4 0.00 0.00 0.00 60 1011.3
20260506205526 17 181 4.8 6.4 0.00 0.00 0.00 60 1011.3
20260506205426 17 173 3.2 6.4 0.00 0.00 0.00 61 1011.2
20260506205326 17 168 3.2 6.4 0.00 0.00 0.00 61 1011.2
20260506205226 17 163 3.2 3.2 0.00 0.00 0.00 62 1011.3
20260506205126 17 156 1.6 3.2 0.00 0.00 0.00 62 1011.1
20260506205026 17 150 1.6 3.2 0.00 0.00 0.00 62 1011.5
20260506204926 17 147 3.2 3.2 0.00 0.00 0.00 62 1011.3
20260506204826 17 150 1.6 3.2 0.00 0.00 0.00 62 1011.5
20260506204726 17 157 3.2 3.2 0.00 0.00 0.00 62 1011.4
20260506204626 17 157 3.2 3.2 0.00 0.00 0.00 62 1011.3
20260506204526 17 191 1.6 3.2 0.00 0.00 0.00 63 1011.5
20260506204426 17 240 1.6 3.2 0.00 0.00 0.00 63 1011.4
20260506204326 17 247 0.0 3.2 0.00 0.00 0.00 64 1011.4
20260506204226 17 247 0.0 3.2 0.00 0.00 0.00 64 1011.5
20260506204126 17 247 0.0 3.2 0.00 0.00 0.00 64 1011.4
20260506204026 17 247 0.0 3.2 0.00 0.00 0.00 64 1011.4
20260506203926 17 251 0.0 3.2 0.00 0.00 0.00 64 1011.5
20260506203826 17 247 0.0 3.2 0.00 0.00 0.00 64 1011.3
20260506203726 17 246 0.0 3.2 0.00 0.00 0.00 64 1011.4
20260506203626 17 246 0.0 3.2 0.00 0.00 0.00 64 1011.4
20260506203526 17 246 0.0 6.4 0.00 0.00 0.00 64 1011.5
20260506203426 17 247 0.0 6.4 0.00 0.00 0.00 65 1011.4
20260506203326 17 247 0.0 6.4 0.00 0.00 0.00 65 1011.7
20260506203226 17 250 0.0 6.4 0.00 0.00 0.00 65 1011.5
20260506203126 17 260 0.0 6.4 0.00 0.00 0.00 65 1011.4
20260506203026 17 264 0.0 6.4 0.00 0.00 0.00 65 1011.5
20260506202926 17 267 0.0 6.4 0.00 0.00 0.00 64 1011.3
20260506202826 17 270 1.6 6.4 0.00 0.00 0.00 64 1011.6
20260506202726 17 273 1.6 6.4 0.00 0.00 0.00 64 1011.6
20260506202626 17 275 3.2 6.4 0.00 0.00 0.00 63 1011.4
20260506202526 17 278 3.2 6.4 0.00 0.00 0.00 63 1011.4
20260506202426 17 281 3.2 6.4 0.00 0.00 0.00 63 1011.4
20260506202326 17 280 1.6 6.4 0.00 0.00 0.00 62 1011.4
20260506202226 17 275 3.2 6.4 0.00 0.00 0.00 62 1011.4
20260506202126 17 268 3.2 6.4 0.00 0.00 0.00 63 1011.5
20260506202026 17 256 3.2 6.4 0.00 0.00 0.00 63 1011.4
20260506201926 17 242 3.2 6.4 0.00 0.00 0.00 64 1011.2
20260506201826 17 230 1.6 6.4 0.00 0.00 0.00 64 1011.4
20260506201726 17 223 0.0 6.4 0.00 0.00 0.00 65 1011.4
20260506201626 17 221 0.0 6.4 0.00 0.00 0.00 65 1011.4
20260506201526 17 217 0.0 6.4 0.00 0.00 0.00 64 1011.5
20260506201426 17 215 3.2 6.4 0.00 0.00 0.00 65 1011.4
20260506201326 17 211 3.2 6.4 0.00 0.00 0.00 65 1011.4
20260506201226 17 208 3.2 6.4 0.00 0.00 0.00 65 1011.3
20260506201126 17 208 3.2 6.4 0.00 0.00 0.00 65 1011.2
20260506201026 17 205 3.2 6.4 0.00 0.00 0.00 65 1011.4
20260506200926 17 202 3.2 6.4 0.00 0.00 0.00 65 1011.4
20260506200826 17 197 3.2 6.4 0.00 0.00 0.00 66 1011.4
20260506200726 17 194 3.2 6.4 0.00 0.00 0.00 66 1011.5
20260506200626 17 189 3.2 6.4 0.00 0.00 0.00 67 1011.3
20260506200526 17 184 3.2 6.4 0.00 0.00 0.00 67 1011.2
20260506200426 17 173 3.2 6.4 0.00 0.00 0.00 67 1011.4
20260506200326 17 163 3.2 6.4 0.00 0.00 0.00 66 1011.4
20260506200226 17 154 3.2 6.4 0.00 0.00 0.00 66 1011.4
20260506200126 17 141 3.2 6.4 0.00 0.00 0.00 65 1011.4
20260506200026 17 130 3.2 3.2 0.00 0.00 0.00 66 1011.3
20260506195926 17 122 3.2 3.2 0.00 0.00 0.00 66 1011.4
20260506195827 17 115 3.2 6.4 0.00 0.00 0.00 67 1011.2
20260506195726 17 108 1.6 6.4 0.00 0.00 0.00 70 1011.3
20260506195626 17 103 0.0 6.4 0.00 0.00 0.00 71 1011.2
20260506195526 17 100 0.0 6.4 0.00 0.00 0.00 71 1011.3
20260506195426 17 96 0.0 6.4 0.00 0.00 0.00 71 1011.4
20260506195326 17 91 1.6 6.4 0.00 0.00 0.00 71 1011.3
20260506195226 17 87 1.6 6.4 0.00 0.00 0.00 71 1011.2
20260506195126 17 82 1.6 6.4 0.00 0.00 0.00 71 1011.5
20260506195026 17 75 1.6 6.4 0.00 0.00 0.00 70 1011.2
20260506194926 17 69 3.2 6.4 0.00 0.00 0.00 70 1011.2
20260506194826 18 57 3.2 3.2 0.00 0.00 0.00 69 1011.4
20260506194726 18 51 3.2 3.2 0.00 0.00 0.00 69 1011.3
20260506194626 18 46 3.2 3.2 0.00 0.00 0.00 69 1011.4
20260506194526 18 39 3.2 3.2 0.00 0.00 0.00 69 1011.2
20260506194426 18 32 3.2 3.2 0.00 0.00 0.00 70 1011.3
20260506194326 18 25 3.2 3.2 0.00 0.00 0.00 70 1011.3
20260506194226 18 16 3.2 3.2 0.00 0.00 0.00 70 1011.1
20260506194126 18 10 3.2 3.2 0.00 0.00 0.00 70 1011.4
20260506194026 18 8 3.2 3.2 0.00 0.00 0.00 69 1011.1
20260506193926 18 6 1.6 3.2 0.00 0.00 0.00 69 1011.2
20260506193826 18 3 1.6 3.2 0.00 0.00 0.00 69 1011.2
20260506193726 18 3 1.6 3.2 0.00 0.00 0.00 69 1011.1
20260506193626 18 2 1.6 3.2 0.00 0.00 0.00 68 1011.4
20260506193526 18 2 0.0 3.2 0.00 0.00 0.00 68 1011.2
20260506193426 18 358 0.0 3.2 0.00 0.00 0.00 68 1011.3
20260506193326 18 354 0.0 3.2 0.00 0.00 0.00 68 1011.2
20260506193226 18 351 1.6 3.2 0.00 0.00 0.00 68 1011.4
20260506193126 18 349 1.6 3.2 0.00 0.00 0.00 68 1011.1
20260506193026 18 346 1.6 3.2 0.00 0.00 0.00 68 1011.1
20260506192926 18 341 1.6 3.2 0.00 0.00 0.00 67 1011.2
20260506192826 18 338 1.6 3.2 0.00 0.00 0.00 67 1011.3
20260506192726 18 333 1.6 3.2 0.00 0.00 0.00 67 1011.0
20260506192626 18 326 0.0 3.2 0.00 0.00 0.00 66 1011.0
20260506192526 18 326 0.0 3.2 0.00 0.00 0.00 66 1010.9
20260506192426 18 324 0.0 3.2 0.00 0.00 0.00 66 1011.1
20260506192326 18 317 1.6 3.2 0.00 0.00 0.00 66 1011.0
20260506192226 18 300 1.6 3.2 0.00 0.00 0.00 67 1011.1
20260506192126 18 285 3.2 3.2 0.00 0.00 0.00 67 1010.8
20260506192026 18 267 3.2 3.2 0.00 0.00 0.00 68 1011.0
20260506191926 18 244 3.2 3.2 0.00 0.00 0.00 68 1011.1
20260506191826 18 225 3.2 3.2 0.00 0.00 0.00 69 1011.0
20260506191726 18 212 3.2 3.2 0.00 0.00 0.00 69 1011.1
20260506191626 18 199 1.6 3.2 0.00 0.00 0.00 69 1010.9
20260506191526 18 196 0.0 3.2 0.00 0.00 0.00 69 1010.9
20260506191426 18 196 0.0 3.2 0.00 0.00 0.00 69 1011.1
20260506191326 18 194 3.2 3.2 0.00 0.00 0.00 69 1011.0
20260506191226 18 195 1.6 3.2 0.00 0.00 0.00 69 1011.1
20260506191126 18 193 3.2 3.2 0.00 0.00 0.00 68 1011.1
20260506191026 18 188 3.2 3.2 0.00 0.00 0.00 67 1011.0
20260506190926 18 162 3.2 3.2 0.00 0.00 0.00 68 1011.1
20260506190826 18 34 3.2 3.2 0.00 0.00 0.00 68 1010.9
20260506190726 18 12 3.2 3.2 0.00 0.00 0.00 68 1010.9
20260506190626 18 9 0.0 3.2 0.00 0.00 0.00 69 1010.9
20260506190526 18 11 0.0 3.2 0.00 0.00 0.00 69 1011.1
20260506190426 18 11 0.0 3.2 0.00 0.00 0.00 69 1011.0
20260506190326 18 20 0.0 3.2 0.00 0.00 0.00 69 1011.0
20260506190226 18 40 0.0 3.2 0.00 0.00 0.00 70 1011.1
20260506190126 18 48 0.0 3.2 0.00 0.00 0.00 70 1010.7
20260506190026 18 62 1.6 3.2 0.00 0.00 0.00 70 1010.8
20260506185926 18 96 3.2 3.2 0.00 0.00 0.00 70 1010.8
20260506185826 18 135 3.2 3.2 0.00 0.00 0.00 70 1010.8
20260506185726 18 150 1.6 3.2 0.00 0.00 0.00 70 1011.0
20260506185626 18 159 0.0 3.2 0.00 0.00 0.00 69 1010.8
20260506185526 18 163 0.0 3.2 0.00 0.00 0.00 69 1010.8
20260506185426 18 163 0.0 3.2 0.00 0.00 0.00 69 1010.8
20260506185326 18 180 1.6 3.2 0.00 0.00 0.00 68 1010.7
20260506185226 18 195 1.6 3.2 0.00 0.00 0.00 69 1010.8
20260506185126 18 205 1.6 3.2 0.00 0.00 0.00 69 1010.4
20260506185026 18 209 0.0 3.2 0.00 0.00 0.00 70 1010.7
20260506184926 18 215 0.0 3.2 0.00 0.00 0.00 70 1010.8
20260506184826 18 218 0.0 3.2 0.00 0.00 0.00 70 1010.6
20260506184726 18 221 0.0 3.2 0.00 0.00 0.00 70 1010.8
20260506184626 18 222 0.0 3.2 0.00 0.00 0.00 70 1010.8
20260506184526 18 220 0.0 3.2 0.00 0.00 0.00 70 1010.8
20260506184426 18 217 0.0 3.2 0.00 0.00 0.00 70 1010.8
20260506184326 18 213 1.6 3.2 0.00 0.00 0.00 70 1010.7
20260506184226 18 208 0.0 3.2 0.00 0.00 0.00 71 1010.7
20260506184125 18 202 0.0 3.2 0.00 0.00 0.00 71 1010.7
20260506184026 18 196 1.6 3.2 0.00 0.00 0.00 71 1010.7
20260506183926 18 185 3.2 3.2 0.00 0.00 0.00 71 1010.6
20260506183826 18 173 3.2 3.2 0.00 0.00 0.00 71 1010.7
20260506183726 18 155 3.2 3.2 0.00 0.00 0.00 71 1010.7
20260506183626 18 140 3.2 3.2 0.00 0.00 0.00 71 1010.8
20260506183526 18 126 3.2 3.2 0.00 0.00 0.00 71 1010.6
20260506183426 18 114 3.2 3.2 0.00 0.00 0.00 71 1010.7
20260506183326 18 103 1.6 3.2 0.00 0.00 0.00 71 1010.4
20260506183226 18 98 1.6 3.2 0.00 0.00 0.00 71 1010.6
20260506183126 18 94 1.6 3.2 0.00 0.00 0.00 70 1010.6
20260506183026 18 91 1.6 3.2 0.00 0.00 0.00 71 1010.6
20260506182926 18 85 1.6 3.2 0.00 0.00 0.00 71 1010.6
20260506182826 18 82 1.6 3.2 0.00 0.00 0.00 71 1010.4
20260506182726 18 79 1.6 3.2 0.00 0.00 0.00 71 1010.5
20260506182626 18 77 1.6 3.2 0.00 0.00 0.00 71 1010.5
20260506182526 18 75 1.6 3.2 0.00 0.00 0.00 71 1010.8
20260506182426 18 73 1.6 3.2 0.00 0.00 0.00 71 1010.5
20260506182326 18 71 3.2 3.2 0.00 0.00 0.00 71 1010.5
20260506182226 18 69 3.2 3.2 0.00 0.00 0.00 71 1010.7
20260506182126 18 68 3.2 3.2 0.00 0.00 0.00 70 1010.5
20260506182026 18 67 3.2 3.2 0.00 0.00 0.00 70 1010.5
20260506181926 19 67 3.2 3.2 0.00 0.00 0.00 70 1010.7
20260506181825 19 67 3.2 3.2 0.00 0.00 0.00 70 1010.7
20260506181726 19 67 3.2 3.2 0.00 0.00 0.00 69 1010.6
20260506181626 19 67 3.2 3.2 0.00 0.00 0.00 69 1010.5
20260506181526 19 67 1.6 3.2 0.00 0.00 0.00 69 1010.5
20260506181426 19 67 3.2 3.2 0.00 0.00 0.00 69 1010.5
20260506181325 19 67 1.6 3.2 0.00 0.00 0.00 69 1010.5
20260506181226 19 67 1.6 3.2 0.00 0.00 0.00 69 1010.5
20260506181126 19 68 1.6 3.2 0.00 0.00 0.00 69 1010.5
20260506181025 19 70 1.6 3.2 0.00 0.00 0.00 69 1010.4
20260506180926 19 72 1.6 3.2 0.00 0.00 0.00 69 1010.3
20260506180826 19 74 1.6 3.2 0.00 0.00 0.00 69 1010.4
20260506180726 19 76 3.2 3.2 0.00 0.00 0.00 69 1010.7
20260506180626 19 80 3.2 3.2 0.00 0.00 0.00 68 1010.5
20260506180526 19 82 3.2 3.2 0.00 0.00 0.00 68 1010.4
20260506180426 19 84 3.2 3.2 0.00 0.00 0.00 68 1010.5
20260506180326 19 89 3.2 3.2 0.00 0.00 0.00 68 1010.5
20260506180226 19 92 3.2 3.2 0.00 0.00 0.00 68 1010.5
20260506180126 19 92 3.2 3.2 0.00 0.00 0.00 68 1010.6
20260506180025 19 92 1.6 3.2 0.00 0.00 0.00 68 1010.4
20260506175925 19 90 1.6 3.2 0.00 0.00 0.00 68 1010.6
20260506175826 19 86 0.0 3.2 0.00 0.00 0.00 68 1010.6
20260506175726 19 83 0.0 3.2 0.00 0.00 0.00 67 1010.5
20260506175626 19 80 1.6 3.2 0.00 0.00 0.00 67 1010.4
20260506175526 19 77 1.6 3.2 0.00 0.00 0.00 67 1010.6
20260506175426 19 73 1.6 3.2 0.00 0.00 0.00 67 1010.5
20260506175326 19 69 0.0 3.2 0.00 0.00 0.00 67 1010.5
20260506175226 19 67 0.0 3.2 0.00 0.00 0.00 67 1010.3
20260506175125 19 67 0.0 3.2 0.00 0.00 0.00 67 1010.6
20260506175026 19 64 0.0 3.2 0.00 0.00 0.00 67 1010.3
20260506174926 19 62 1.6 3.2 0.00 0.00 0.00 67 1010.6
20260506174826 19 59 0.0 3.2 0.00 0.00 0.00 67 1010.4
20260506174726 19 57 0.0 3.2 0.00 0.00 0.00 67 1010.5
20260506174625 19 56 1.6 3.2 0.00 0.00 0.00 67 1010.4
20260506174526 19 54 0.0 3.2 0.00 0.00 0.00 67 1010.4
20260506174425 19 50 0.0 3.2 0.00 0.00 0.00 67 1010.5
20260506174326 19 42 1.6 3.2 0.00 0.00 0.00 67 1010.3
20260506174226 19 20 3.2 3.2 0.00 0.00 0.00 67 1010.4
20260506174126 19 340 3.2 3.2 0.00 0.00 0.00 67 1010.6
20260506174026 19 303 1.6 3.2 0.00 0.00 0.00 67 1010.7
20260506173925 19 268 3.2 3.2 0.00 0.00 0.00 67 1010.5
20260506173826 19 253 3.2 3.2 0.00 0.00 0.00 66 1010.6
20260506173725 19 247 3.2 3.2 0.00 0.00 0.00 66 1010.5
20260506173626 19 247 1.6 3.2 0.00 0.00 0.00 65 1010.5
20260506173525 19 247 3.2 3.2 0.00 0.00 0.00 65 1010.3
20260506173426 19 247 1.6 3.2 0.00 0.00 0.00 65 1010.6
20260506173326 19 247 0.0 3.2 0.00 0.00 0.00 66 1010.5
20260506173225 19 247 0.0 3.2 0.00 0.00 0.00 66 1010.4
20260506173125 19 247 0.0 3.2 0.00 0.00 0.00 66 1010.6
20260506173026 19 247 0.0 3.2 0.00 0.00 0.00 67 1010.5
20260506172926 19 247 0.0 3.2 0.00 0.00 0.00 67 1010.5
20260506172826 19 247 0.0 3.2 0.00 0.00 0.00 68 1010.4
20260506172726 19 247 0.0 3.2 0.00 0.00 0.00 68 1010.4
20260506172626 19 247 0.0 3.2 0.00 0.00 0.00 68 1010.4
20260506172525 19 247 0.0 3.2 0.00 0.00 0.00 68 1010.5
20260506172425 19 247 0.0 3.2 0.00 0.00 0.00 68 1010.4
20260506172326 19 247 0.0 3.2 0.00 0.00 0.00 68 1010.5
20260506172226 19 247 0.0 3.2 0.00 0.00 0.00 68 1010.3
20260506172125 19 247 0.0 3.2 0.00 0.00 0.00 68 1010.4
20260506172026 19 247 1.6 3.2 0.00 0.00 0.00 68 1010.3
20260506171926 20 247 3.2 3.2 0.00 0.00 0.00 67 1010.3
20260506171825 20 247 3.2 3.2 0.00 0.00 0.00 66 1010.3
20260506171726 20 247 3.2 3.2 0.00 0.00 0.00 65 1010.3
20260506171625 20 251 3.2 3.2 0.00 0.00 0.00 65 1010.3
20260506171526 20 256 3.2 3.2 0.00 0.00 0.00 64 1010.3
20260506171425 20 262 1.6 3.2 0.00 0.00 0.00 63 1010.3
20260506171325 20 266 1.6 3.2 0.00 0.00 0.00 63 1010.4
20260506171226 20 272 3.2 3.2 0.00 0.00 0.00 62 1010.4
20260506171126 20 277 3.2 3.2 0.00 0.00 0.00 62 1010.4
20260506171026 20 284 1.6 3.2 0.00 0.00 0.00 61 1010.2
20260506170926 20 289 1.6 3.2 0.00 0.00 0.00 61 1010.4
20260506170826 20 292 0.0 3.2 0.00 0.00 0.00 62 1010.5
20260506170725 20 292 0.0 3.2 0.00 0.00 0.00 62 1010.5
20260506170626 20 292 0.0 3.2 0.00 0.00 0.00 62 1010.2
20260506170526 20 292 1.6 3.2 0.00 0.00 0.00 62 1010.3
20260506170426 20 292 1.6 3.2 0.00 0.00 0.00 62 1010.4
20260506170325 20 292 1.6 3.2 0.00 0.00 0.00 62 1010.5
20260506165926 20 292 3.2 3.2 0.00 0.00 0.00 64 1010.5
20260506165826 20 292 3.2 3.2 0.00 0.00 0.00 64 1010.6
20260506165726 20 292 3.2 3.2 0.00 0.00 0.00 65 1010.4
20260506165626 19 292 3.2 3.2 0.00 0.00 0.00 65 1010.3
20260506165526 19 292 3.2 3.2 0.00 0.00 0.00 65 1010.5
20260506165425 19 292 3.2 3.2 0.00 0.00 0.00 66 1010.3
20260506165326 19 292 1.6 3.2 0.00 0.00 0.00 66 1010.6
20260506165226 19 292 1.6 3.2 0.00 0.00 0.00 66 1010.5
20260506165126 19 292 0.0 3.2 0.00 0.00 0.00 67 1010.6
20260506165026 19 292 0.0 3.2 0.00 0.00 0.00 67 1010.5
20260506164925 19 292 0.0 3.2 0.00 0.00 0.00 67 1010.5
20260506164825 19 292 0.0 3.2 0.00 0.00 0.00 67 1010.5
20260506164726 20 292 0.0 3.2 0.00 0.00 0.00 67 1010.7
20260506164626 19 292 0.0 3.2 0.00 0.00 0.00 67 1010.6
20260506164526 20 292 0.0 3.2 0.00 0.00 0.00 68 1010.6
20260506164426 20 292 1.6 3.2 0.00 0.00 0.00 68 1010.6
20260506164326 20 292 1.6 3.2 0.00 0.00 0.00 68 1010.6
20260506164226 20 292 3.2 3.2 0.00 0.00 0.00 68 1010.6
20260506164126 20 292 3.2 3.2 0.00 0.00 0.00 68 1010.5
20260506164026 20 292 3.2 3.2 0.00 0.00 0.00 68 1010.5
20260506163926 20 292 3.2 3.2 0.00 0.00 0.00 68 1010.5
20260506163825 20 292 3.2 3.2 0.00 0.00 0.00 68 1010.8
20260506163726 19 292 1.6 3.2 0.00 0.00 0.00 68 1010.6
20260506163626 20 292 1.6 3.2 0.00 0.00 0.00 68 1010.5
20260506163526 20 292 0.0 6.4 0.00 0.00 0.00 68 1010.5
20260506163426 20 295 0.0 6.4 0.00 0.00 0.00 68 1010.5
20260506163326 20 299 0.0 6.4 0.00 0.00 0.00 68 1010.4
20260506163225 20 299 0.0 6.4 0.00 0.00 0.00 68 1010.5
20260506163125 19 297 0.0 6.4 0.00 0.00 0.00 68 1010.6
20260506163026 19 297 0.0 6.4 0.00 0.00 0.00 68 1010.6
20260506162926 19 296 1.6 6.4 0.00 0.00 0.00 68 1010.5
20260506162826 19 296 3.2 6.4 0.00 0.00 0.00 68 1010.4
20260506162725 20 296 3.2 6.4 0.00 0.00 0.00 68 1010.5
20260506162625 19 296 3.2 6.4 0.00 0.00 0.00 68 1010.8
20260506162526 19 296 3.2 6.4 0.00 0.00 0.00 68 1010.7
20260506162426 20 296 4.8 6.4 0.00 0.00 0.00 69 1010.5
20260506162326 20 293 4.8 6.4 0.00 0.00 0.00 68 1010.7
20260506162226 20 291 4.8 6.4 0.00 0.00 0.00 68 1010.5
20260506162126 20 290 3.2 6.4 0.00 0.00 0.00 67 1010.6
20260506162025 20 289 3.2 6.4 0.00 0.00 0.00 67 1010.6
20260506161925 20 288 3.2 6.4 0.00 0.00 0.00 66 1010.7
20260506161825 20 287 3.2 3.2 0.00 0.00 0.00 67 1010.5
20260506161725 20 287 1.6 3.2 0.00 0.00 0.00 66 1010.6
20260506161626 20 293 0.0 3.2 0.00 0.00 0.00 66 1010.5
20260506161525 20 300 0.0 3.2 0.00 0.00 0.00 66 1010.6
20260506161425 20 308 0.0 3.2 0.00 0.00 0.00 66 1010.6
20260506161325 20 316 0.0 3.2 0.00 0.00 0.00 67 1010.7
20260506161226 20 325 1.6 3.2 0.00 0.00 0.00 67 1010.5
20260506161126 20 332 0.0 3.2 0.00 0.00 0.00 67 1010.6
20260506161026 20 339 0.0 3.2 0.00 0.00 0.00 66 1010.8
20260506160926 20 339 0.0 3.2 0.00 0.00 0.00 66 1010.8
20260506160825 20 342 0.0 3.2 0.00 0.00 0.00 66 1010.5
20260506160726 20 352 1.6 3.2 0.00 0.00 0.00 65 1010.6
20260506160626 20 358 0.0 3.2 0.00 0.00 0.00 65 1010.5
20260506160526 20 5 1.6 3.2 0.00 0.00 0.00 66 1010.6
20260506160425 20 26 1.6 3.2 0.00 0.00 0.00 66 1010.7
20260506160326 20 56 1.6 3.2 0.00 0.00 0.00 66 1010.8
20260506160225 20 84 0.0 3.2 0.00 0.00 0.00 66 1010.6
20260506160126 20 81 0.0 3.2 0.00 0.00 0.00 66 1010.5
20260506160025 20 78 0.0 3.2 0.00 0.00 0.00 66 1010.7
20260506155926 20 79 0.0 3.2 0.00 0.00 0.00 66 1010.6
20260506155826 20 77 0.0 3.2 0.00 0.00 0.00 67 1010.8
20260506155726 20 78 0.0 3.2 0.00 0.00 0.00 67 1010.8
20260506155626 20 79 0.0 3.2 0.00 0.00 0.00 67 1010.4
20260506155525 20 80 0.0 3.2 0.00 0.00 0.00 67 1010.5
20260506155426 20 79 1.6 3.2 0.00 0.00 0.00 67 1010.8
20260506155325 20 77 1.6 3.2 0.00 0.00 0.00 67 1010.6
20260506155226 20 77 1.6 3.2 0.00 0.00 0.00 67 1010.7
20260506155126 20 79 1.6 6.4 0.00 0.00 0.00 67 1010.4
20260506155026 20 80 3.2 6.4 0.00 0.00 0.00 67 1010.6
20260506154926 20 83 3.2 6.4 0.00 0.00 0.00 68 1010.5
20260506154826 20 88 3.2 6.4 0.00 0.00 0.00 68 1010.5
20260506154726 20 92 3.2 6.4 0.00 0.00 0.00 68 1010.1
20260506154626 20 97 3.2 6.4 0.00 0.00 0.00 68 1010.4
20260506154525 20 96 3.2 6.4 0.00 0.00 0.00 68 1010.6
20260506154425 20 98 3.2 6.4 0.00 0.00 0.00 68 1010.4
20260506154326 20 100 3.2 6.4 0.00 0.00 0.00 68 1010.3
20260506154225 20 101 3.2 6.4 0.00 0.00 0.00 67 1010.5
20260506154125 20 106 3.2 6.4 0.00 0.00 0.00 67 1010.5
20260506154026 20 112 3.2 6.4 0.00 0.00 0.00 67 1010.9
20260506153926 20 118 4.8 6.4 0.00 0.00 0.00 66 1010.6
20260506153825 20 121 3.2 6.4 0.00 0.00 0.00 65 1010.7
20260506153726 20 125 4.8 6.4 0.00 0.00 0.00 66 1010.4
20260506153625 20 129 3.2 6.4 0.00 0.00 0.00 66 1010.8
20260506153525 20 137 3.2 6.4 0.00 0.00 0.00 66 1010.8
20260506153426 20 144 3.2 6.4 0.00 0.00 0.00 66 1010.5
20260506153325 20 146 1.6 6.4 0.00 0.00 0.00 66 1010.8
20260506153226 20 148 3.2 6.4 0.00 0.00 0.00 65 1010.5
20260506153125 20 151 3.2 6.4 0.00 0.00 0.00 64 1010.6
20260506153026 20 150 3.2 6.4 0.00 0.00 0.00 64 1010.8
20260506152925 20 148 3.2 6.4 0.00 0.00 0.00 65 1010.6
20260506152825 20 147 3.2 9.7 0.00 0.00 0.00 64 1010.8
20260506152726 20 145 3.2 9.7 0.00 0.00 0.00 64 1010.6
20260506152625 20 142 3.2 9.7 0.00 0.00 0.00 64 1010.8
20260506152526 20 138 3.2 9.7 0.00 0.00 0.00 64 1010.9
20260506152426 20 136 4.8 9.7 0.00 0.00 0.00 64 1010.9
20260506152325 20 133 4.8 9.7 0.00 0.00 0.00 64 1010.7
20260506152225 20 132 4.8 9.7 0.00 0.00 0.00 64 1010.6
20260506152126 20 128 4.8 9.7 0.00 0.00 0.00 64 1010.6
20260506152025 20 124 6.4 9.7 0.00 0.00 0.00 64 1010.6
20260506151926 20 124 6.4 9.7 0.00 0.00 0.00 64 1010.9
20260506151825 20 122 6.4 6.4 0.00 0.00 0.00 64 1010.6
20260506151725 20 120 3.2 6.4 0.00 0.00 0.00 64 1010.7
20260506151625 20 123 3.2 6.4 0.00 0.00 0.00 64 1010.8
20260506151526 20 127 4.8 6.4 0.00 0.00 0.00 64 1010.9
20260506151425 20 129 3.2 9.7 0.00 0.00 0.00 64 1010.8
20260506151325 20 132 3.2 9.7 0.00 0.00 0.00 64 1010.9
20260506151225 20 133 3.2 9.7 0.00 0.00 0.00 64 1010.9
20260506151125 20 136 6.4 9.7 0.00 0.00 0.00 64 1010.8
20260506151026 20 141 4.8 9.7 0.00 0.00 0.00 65 1010.8
20260506150925 20 146 3.2 9.7 0.00 0.00 0.00 65 1010.9
20260506150825 20 150 4.8 9.7 0.00 0.00 0.00 64 1010.9
20260506150725 20 151 4.8 9.7 0.00 0.00 0.00 64 1010.9
20260506150625 20 152 6.4 9.7 0.00 0.00 0.00 64 1011.0
20260506150525 20 156 6.4 9.7 0.00 0.00 0.00 64 1011.0
20260506150425 20 157 6.4 9.7 0.00 0.00 0.00 63 1010.7
20260506150326 20 158 4.8 9.7 0.00 0.00 0.00 65 1011.1
20260506150225 20 162 6.4 9.7 0.00 0.00 0.00 63 1010.9
20260506150125 20 163 6.4 9.7 0.00 0.00 0.00 63 1010.8
20260506150025 20 161 4.8 11.3 0.00 0.00 0.00 63 1010.9
20260506145925 20 159 4.8 12.9 0.00 0.00 0.00 63 1011.0
20260506145826 20 158 6.4 12.9 0.00 0.00 0.00 63 1010.8
20260506145726 20 158 6.4 12.9 0.00 0.00 0.00 63 1010.8
20260506145626 20 155 4.8 12.9 0.00 0.00 0.00 63 1010.9
20260506145525 20 151 6.4 12.9 0.00 0.00 0.00 64 1010.8
20260506145426 20 151 6.4 12.9 0.00 0.00 0.00 63 1010.8
20260506145325 20 152 4.8 12.9 0.00 0.00 0.00 64 1010.7
20260506145225 20 153 4.8 12.9 0.00 0.00 0.00 64 1010.8
20260506145125 20 154 8.0 12.9 0.00 0.00 0.00 63 1010.9
20260506145025 20 157 6.4 12.9 0.00 0.00 0.00 63 1010.8
20260506144926 20 159 9.7 12.9 0.00 0.00 0.00 63 1010.8
20260506144826 20 160 8.0 12.9 0.00 0.00 0.00 63 1010.9
20260506144726 20 164 9.7 12.9 0.00 0.00 0.00 63 1010.9
20260506144626 20 169 9.7 12.9 0.00 0.00 0.00 63 1010.9
20260506144525 20 171 9.7 12.9 0.00 0.00 0.00 63 1010.8
20260506144425 20 173 6.4 9.7 0.00 0.00 0.00 63 1011.0
20260506144325 20 171 6.4 9.7 0.00 0.00 0.00 63 1010.7
20260506144226 20 163 6.4 11.3 0.00 0.00 0.00 63 1010.7
20260506144125 20 159 4.8 11.3 0.00 0.00 0.00 63 1010.9
20260506144026 20 155 4.8 12.9 0.00 0.00 0.00 62 1010.8
20260506143926 20 152 3.2 12.9 0.00 0.00 0.00 63 1010.7
20260506143826 20 152 4.8 12.9 0.00 0.00 0.00 62 1010.9
20260506143726 20 149 4.8 12.9 0.00 0.00 0.00 63 1010.6
20260506143625 20 143 6.4 12.9 0.00 0.00 0.00 63 1010.6
20260506143525 20 140 4.8 12.9 0.00 0.00 0.00 63 1010.7
20260506143426 20 138 6.4 12.9 0.00 0.00 0.00 63 1010.6
20260506143326 20 137 8.0 12.9 0.00 0.00 0.00 62 1010.3
20260506143225 20 137 8.0 12.9 0.00 0.00 0.00 61 1010.5
20260506143125 20 137 8.0 12.9 0.00 0.00 0.00 62 1010.7
20260506143026 20 137 6.4 11.3 0.00 0.00 0.00 62 1010.7